Time,TemperatureF,DewpointF,PressureIn,WindDirection,WindDirectionDegrees,WindSpeedMPH,WindSpeedGustMPH,Humidity,HourlyPrecipIn,Conditions,Clouds,dailyrainin,SoftwareType,DateUTC
2013-11-03 00:01:00,46.9,40.1,30.06,NNW,331,0.0,0.0,77,0.00,,CLR,0.00,VWS V14.01,2013-11-03 04:01:00,
2013-11-03 00:02:00,46.8,40.3,30.06,NNW,332,0.0,0.0,78,0.00,,CLR,0.00,VWS V14.01,2013-11-03 04:02:00,
2013-11-03 00:07:00,46.2,40.4,30.06,NNW,331,0.0,0.0,80,0.00,,CLR,0.00,VWS V14.01,2013-11-03 04:07:00,
2013-11-03 00:12:00,45.8,39.7,30.06,NNW,331,0.0,0.0,79,0.00,,CLR,0.00,VWS V14.01,2013-11-03 04:12:00,
2013-11-03 00:17:00,45.7,39.2,30.06,NNW,331,0.0,0.0,78,0.00,,CLR,0.00,VWS V14.01,2013-11-03 04:17:00,
2013-11-03 00:22:00,45.7,39.2,30.06,NNW,331,0.0,0.0,78,0.00,,CLR,0.00,VWS V14.01,2013-11-03 04:22:00,
2013-11-03 00:28:00,45.8,39.3,30.06,NNW,333,0.0,0.0,78,0.00,,CLR,0.00,VWS V14.01,2013-11-03 04:28:00,
2013-11-03 00:33:00,45.6,39.5,30.06,NNW,333,0.0,0.0,79,0.00,,CLR,0.00,VWS V14.01,2013-11-03 04:33:00,
2013-11-03 00:38:00,45.3,39.8,30.07,NNW,333,0.0,0.0,81,0.00,,CLR,0.00,VWS V14.01,2013-11-03 04:38:00,
2013-11-03 00:43:00,44.9,40.1,30.07,NNW,333,0.0,0.0,83,0.00,,CLR,0.00,VWS V14.01,2013-11-03 04:43:00,
2013-11-03 00:48:00,44.5,40.0,30.07,NNW,333,0.0,0.0,84,0.00,,CLR,0.00,VWS V14.01,2013-11-03 04:48:00,
2013-11-03 00:53:00,44.1,39.3,30.07,NNW,333,0.0,0.0,83,0.00,,CLR,0.00,VWS V14.01,2013-11-03 04:53:00,
2013-11-03 00:58:00,43.9,39.4,30.07,NNW,333,0.0,0.0,84,0.00,,CLR,0.00,VWS V14.01,2013-11-03 04:58:00,
2013-11-03 01:00:00,46.8,40.0,30.06,NNE,23,0.0,0.0,77,0.00,,CLR,0.00,VWS V14.01,2013-11-03 05:00:00,
2013-11-03 01:01:00,46.8,40.0,30.06,NNE,23,0.0,0.0,77,0.00,,CLR,0.00,VWS V14.01,2013-11-03 05:01:00,
2013-11-03 01:02:00,46.8,40.0,30.06,NNE,23,0.0,0.0,77,0.00,,CLR,0.00,VWS V14.01,2013-11-03 05:02:00,
2013-11-03 01:03:00,43.7,39.5,30.07,NNW,333,0.0,0.0,85,0.00,,CLR,0.00,VWS V14.01,2013-11-03 05:03:00,
2013-11-03 01:04:00,46.8,40.0,30.06,NNE,18,0.0,0.0,77,0.00,,CLR,0.00,VWS V14.01,2013-11-03 05:04:00,
2013-11-03 01:05:00,46.8,40.0,30.06,NW,326,1.0,0.0,77,0.00,,CLR,0.00,VWS V14.01,2013-11-03 05:05:00,
2013-11-03 01:06:00,46.8,40.0,30.07,NW,326,0.0,0.0,77,0.00,,CLR,0.00,VWS V14.01,2013-11-03 05:06:00,
2013-11-03 01:07:00,46.8,40.0,30.06,North,1,0.0,0.0,77,0.00,,CLR,0.00,VWS V14.01,2013-11-03 05:07:00,
2013-11-03 01:08:00,43.9,39.4,30.07,NNW,339,0.0,0.0,84,0.00,,CLR,0.00,VWS V14.01,2013-11-03 05:08:00,
2013-11-03 01:09:00,46.8,40.0,30.07,NNE,30,1.0,0.0,77,0.00,,CLR,0.00,VWS V14.01,2013-11-03 05:09:00,
2013-11-03 01:10:00,46.8,40.0,30.06,NNE,28,0.0,0.0,77,0.00,,CLR,0.00,VWS V14.01,2013-11-03 05:10:00,
2013-11-03 01:11:00,46.8,40.0,30.07,NNW,329,0.0,0.0,77,0.00,,CLR,0.00,VWS V14.01,2013-11-03 05:11:00,
2013-11-03 01:12:00,46.8,40.0,30.07,NNW,330,0.0,0.0,77,0.00,,CLR,0.00,VWS V14.01,2013-11-03 05:12:00,
2013-11-03 01:13:00,44.7,39.5,30.07,NNE,16,0.0,0.0,82,0.00,,CLR,0.00,VWS V14.01,2013-11-03 05:13:00,
2013-11-03 01:14:00,46.8,40.0,30.07,NNE,18,0.0,0.0,77,0.00,,CLR,0.00,VWS V14.01,2013-11-03 05:14:00,
2013-11-03 01:15:00,45.7,39.2,30.06,NNW,332,0.0,0.0,78,0.00,,CLR,0.00,VWS V14.01,2013-11-03 05:15:00,
2013-11-03 01:16:00,46.7,39.9,30.07,NNE,18,0.0,0.0,77,0.00,,CLR,0.00,VWS V14.01,2013-11-03 05:16:00,
2013-11-03 01:17:00,46.7,39.9,30.06,NNE,18,0.0,0.0,77,0.00,,CLR,0.00,VWS V14.01,2013-11-03 05:17:00,
2013-11-03 01:18:00,45.4,39.6,30.07,NW,321,0.0,0.0,80,0.00,,CLR,0.00,VWS V14.01,2013-11-03 05:18:00,
2013-11-03 01:19:00,46.5,39.7,30.07,NNE,16,0.0,0.0,77,0.00,,CLR,0.00,VWS V14.01,2013-11-03 05:19:00,
2013-11-03 01:20:00,46.5,39.7,30.07,NNE,16,0.0,0.0,77,0.00,,CLR,0.00,VWS V14.01,2013-11-03 05:20:00,
2013-11-03 01:21:00,45.7,39.2,30.06,NNW,332,0.0,0.0,78,0.00,,CLR,0.00,VWS V14.01,2013-11-03 05:21:00,
2013-11-03 01:22:00,45.7,39.6,30.06,NNW,333,0.0,0.0,79,0.00,,CLR,0.00,VWS V14.01,2013-11-03 05:22:00,
2013-11-03 01:23:00,45.9,39.8,30.07,NNW,328,0.0,0.0,79,0.00,,CLR,0.00,VWS V14.01,2013-11-03 05:23:00,
2013-11-03 01:24:00,45.8,39.7,30.06,NNW,333,0.0,0.0,79,0.00,,CLR,0.00,VWS V14.01,2013-11-03 05:24:00,
2013-11-03 01:26:00,45.8,39.3,30.06,NNW,333,0.0,0.0,78,0.00,,CLR,0.00,VWS V14.01,2013-11-03 05:26:00,
2013-11-03 01:27:00,45.8,39.3,30.06,NNW,333,0.0,0.0,78,0.00,,CLR,0.00,VWS V14.01,2013-11-03 05:27:00,
2013-11-03 01:28:00,46.4,39.9,30.07,NNW,338,1.0,0.0,78,0.00,,CLR,0.00,VWS V14.01,2013-11-03 05:28:00,
2013-11-03 01:29:00,45.8,39.3,30.06,NNW,333,0.0,0.0,78,0.00,,CLR,0.00,VWS V14.01,2013-11-03 05:29:00,
2013-11-03 01:30:00,45.8,39.3,30.06,NNW,333,0.0,0.0,78,0.00,,CLR,0.00,VWS V14.01,2013-11-03 05:30:00,
2013-11-03 01:31:00,45.8,39.7,30.06,NNW,331,0.0,0.0,79,0.00,,CLR,0.00,VWS V14.01,2013-11-03 05:31:00,
2013-11-03 01:32:00,45.7,39.6,30.06,NNW,333,0.0,0.0,79,0.00,,CLR,0.00,VWS V14.01,2013-11-03 05:32:00,
2013-11-03 01:33:00,46.5,39.7,30.07,North,11,0.0,0.0,77,0.00,,CLR,0.00,VWS V14.01,2013-11-03 05:33:00,
2013-11-03 01:34:00,45.6,39.8,30.07,NNW,333,0.0,0.0,80,0.00,,CLR,0.00,VWS V14.01,2013-11-03 05:34:00,
2013-11-03 01:35:00,45.5,39.7,30.06,NNW,333,0.0,0.0,80,0.00,,CLR,0.00,VWS V14.01,2013-11-03 05:35:00,
2013-11-03 01:36:00,45.4,39.6,30.07,NNW,333,0.0,0.0,80,0.00,,CLR,0.00,VWS V14.01,2013-11-03 05:36:00,
2013-11-03 01:37:00,45.3,39.5,30.06,NNW,333,0.0,0.0,80,0.00,,CLR,0.00,VWS V14.01,2013-11-03 05:37:00,
2013-11-03 01:38:00,46.8,39.7,30.07,NNW,345,0.0,0.0,76,0.00,,CLR,0.00,VWS V14.01,2013-11-03 05:38:00,
2013-11-03 01:39:00,45.2,40.0,30.07,NNW,333,0.0,0.0,82,0.00,,CLR,0.00,VWS V14.01,2013-11-03 05:39:00,
2013-11-03 01:40:00,45.1,39.9,30.07,NNW,333,0.0,0.0,82,0.00,,CLR,0.00,VWS V14.01,2013-11-03 05:40:00,
2013-11-03 01:41:00,45.1,39.9,30.07,NNW,333,0.0,0.0,82,0.00,,CLR,0.00,VWS V14.01,2013-11-03 05:41:00,
2013-11-03 01:42:00,45.0,39.8,30.07,NNW,333,0.0,0.0,82,0.00,,CLR,0.00,VWS V14.01,2013-11-03 05:42:00,
2013-11-03 01:43:00,46.9,39.7,30.07,NNW,347,3.0,0.0,76,0.00,,CLR,0.00,VWS V14.01,2013-11-03 05:43:00,
2013-11-03 01:44:00,44.8,40.0,30.07,NNW,333,0.0,0.0,83,0.00,,CLR,0.00,VWS V14.01,2013-11-03 05:44:00,
2013-11-03 01:45:00,44.8,40.0,30.07,NNW,333,0.0,0.0,83,0.00,,CLR,0.00,VWS V14.01,2013-11-03 05:45:00,
2013-11-03 01:46:00,44.7,39.9,30.07,NNW,333,0.0,0.0,83,0.00,,CLR,0.00,VWS V14.01,2013-11-03 05:46:00,
2013-11-03 01:47:00,44.6,39.8,30.07,NNW,333,0.0,0.0,83,0.00,,CLR,0.00,VWS V14.01,2013-11-03 05:47:00,
2013-11-03 01:48:00,47.0,39.8,30.07,North,358,0.0,0.0,76,0.00,,CLR,0.00,VWS V14.01,2013-11-03 05:48:00,
2013-11-03 01:49:00,44.4,39.9,30.07,NNW,333,0.0,0.0,84,0.00,,CLR,0.00,VWS V14.01,2013-11-03 05:49:00,
2013-11-03 01:50:00,44.3,39.8,30.07,NNW,333,0.0,0.0,84,0.00,,CLR,0.00,VWS V14.01,2013-11-03 05:50:00,
2013-11-03 01:51:00,44.2,39.7,30.07,NNW,333,0.0,0.0,84,0.00,,CLR,0.00,VWS V14.01,2013-11-03 05:51:00,
2013-11-03 01:52:00,44.1,39.6,30.07,NNW,333,0.0,0.0,84,0.00,,CLR,0.00,VWS V14.01,2013-11-03 05:52:00,
2013-11-03 01:53:00,46.9,39.7,30.06,NNE,15,0.0,0.0,76,0.00,,CLR,0.00,VWS V14.01,2013-11-03 05:53:00,
2013-11-03 01:54:00,44.1,39.3,30.07,NNW,333,0.0,0.0,83,0.00,,CLR,0.00,VWS V14.01,2013-11-03 05:54:00,
2013-11-03 01:55:00,44.0,39.5,30.07,NNW,333,0.0,0.0,84,0.00,,CLR,0.00,VWS V14.01,2013-11-03 05:55:00,
2013-11-03 01:56:00,44.0,39.5,30.07,NNW,333,0.0,0.0,84,0.00,,CLR,0.00,VWS V14.01,2013-11-03 05:56:00,
2013-11-03 01:57:00,44.0,39.5,30.07,NNW,333,0.0,0.0,84,0.00,,CLR,0.00,VWS V14.01,2013-11-03 05:57:00,
2013-11-03 01:58:00,46.9,39.7,30.06,North,354,0.0,0.0,76,0.00,,CLR,0.00,VWS V14.01,2013-11-03 05:58:00,
2013-11-03 01:59:00,43.9,39.7,30.07,NNW,333,0.0,0.0,85,0.00,,CLR,0.00,VWS V14.01,2013-11-03 05:59:00,
2013-11-03 01:00:00,43.8,39.6,30.07,NNW,333,0.0,0.0,85,0.00,,CLR,0.00,VWS V14.01,2013-11-03 06:00:00,
2013-11-03 01:01:00,43.8,39.6,30.07,NNW,333,0.0,0.0,85,0.00,,CLR,0.00,VWS V14.01,2013-11-03 06:01:00,
2013-11-03 01:02:00,43.8,39.6,30.07,NNW,333,0.0,0.0,85,0.00,,CLR,0.00,VWS V14.01,2013-11-03 06:02:00,
2013-11-03 01:03:00,43.7,39.5,30.07,NNW,333,0.0,0.0,85,0.00,,CLR,0.00,VWS V14.01,2013-11-03 06:03:00,
2013-11-03 01:04:00,43.8,39.6,30.07,NNW,333,0.0,0.0,85,0.00,,CLR,0.00,VWS V14.01,2013-11-03 06:04:00,
2013-11-03 01:05:00,43.7,39.5,30.07,NNW,339,0.0,0.0,85,0.00,,CLR,0.00,VWS V14.01,2013-11-03 06:05:00,
2013-11-03 01:06:00,43.8,39.6,30.07,NNW,339,0.0,0.0,85,0.00,,CLR,0.00,VWS V14.01,2013-11-03 06:06:00,
2013-11-03 01:07:00,43.8,39.3,30.07,NNW,339,0.0,0.0,84,0.00,,CLR,0.00,VWS V14.01,2013-11-03 06:07:00,
2013-11-03 01:08:00,46.8,40.0,30.06,NNE,17,0.0,0.0,77,0.00,,CLR,0.00,VWS V14.01,2013-11-03 06:08:00,
2013-11-03 01:09:00,44.0,39.2,30.07,NNW,345,0.0,0.0,83,0.00,,CLR,0.00,VWS V14.01,2013-11-03 06:09:00,
2013-11-03 01:10:00,44.2,39.4,30.07,NNW,345,0.0,0.0,83,0.00,,CLR,0.00,VWS V14.01,2013-11-03 06:10:00,
2013-11-03 01:11:00,44.4,39.6,30.07,NNW,328,0.0,0.0,83,0.00,,CLR,0.00,VWS V14.01,2013-11-03 06:11:00,
2013-11-03 01:12:00,44.5,39.4,30.07,NNE,16,0.0,0.0,82,0.00,,CLR,0.00,VWS V14.01,2013-11-03 06:12:00,
2013-11-03 01:13:00,46.8,40.0,30.07,NNW,330,0.0,0.0,77,0.00,,CLR,0.00,VWS V14.01,2013-11-03 06:13:00,
2013-11-03 01:14:00,44.9,39.4,30.07,NNE,15,0.0,0.0,81,0.00,,CLR,0.00,VWS V14.01,2013-11-03 06:14:00,
2013-11-03 01:15:00,45.0,39.5,30.07,North,352,1.0,0.0,81,0.00,,CLR,0.00,VWS V14.01,2013-11-03 06:15:00,
2013-11-03 01:16:00,45.2,39.4,30.07,North,354,0.0,0.0,80,0.00,,CLR,0.00,VWS V14.01,2013-11-03 06:16:00,
2013-11-03 01:17:00,45.3,39.5,30.07,NW,309,0.0,0.0,80,0.00,,CLR,0.00,VWS V14.01,2013-11-03 06:17:00,
2013-11-03 01:18:00,46.6,39.8,30.07,NNE,17,0.0,0.0,77,0.00,,CLR,0.00,VWS V14.01,2013-11-03 06:18:00,
2013-11-03 01:19:00,45.5,39.7,30.07,NNW,339,1.0,0.0,80,0.00,,CLR,0.00,VWS V14.01,2013-11-03 06:19:00,
2013-11-03 01:20:00,45.6,39.5,30.07,NNW,340,0.0,0.0,79,0.00,,CLR,0.00,VWS V14.01,2013-11-03 06:20:00,
2013-11-03 01:21:00,45.7,39.6,30.07,North,350,0.0,0.0,79,0.00,,CLR,0.00,VWS V14.01,2013-11-03 06:21:00,
2013-11-03 01:22:00,45.8,39.7,30.07,NNW,329,3.0,0.0,79,0.00,,CLR,0.00,VWS V14.01,2013-11-03 06:22:00,
2013-11-03 01:23:00,46.3,39.8,30.07,NNE,24,1.0,0.0,78,0.00,,CLR,0.00,VWS V14.01,2013-11-03 06:23:00,
2013-11-03 01:24:00,46.0,39.5,30.07,North,3,1.0,0.0,78,0.00,,CLR,0.00,VWS V14.01,2013-11-03 06:24:00,
2013-11-03 01:25:00,46.1,39.6,30.07,North,354,1.0,0.0,78,0.00,,CLR,0.00,VWS V14.01,2013-11-03 06:25:00,
2013-11-03 01:26:00,46.2,39.7,30.07,NNW,348,0.0,0.0,78,0.00,,CLR,0.00,VWS V14.01,2013-11-03 06:26:00,
2013-11-03 01:27:00,46.3,39.8,30.07,North,353,0.0,0.0,78,0.00,,CLR,0.00,VWS V14.01,2013-11-03 06:27:00,
2013-11-03 01:28:00,46.2,39.7,30.07,North,8,0.0,0.0,78,0.00,,CLR,0.00,VWS V14.01,2013-11-03 06:28:00,
2013-11-03 01:29:00,46.4,39.6,30.07,North,5,2.0,0.0,77,0.00,,CLR,0.00,VWS V14.01,2013-11-03 06:29:00,
2013-11-03 01:30:00,46.4,39.6,30.07,North,4,0.0,0.0,77,0.00,,CLR,0.00,VWS V14.01,2013-11-03 06:30:00,
2013-11-03 01:31:00,46.5,39.7,30.07,North,7,1.0,0.0,77,0.00,,CLR,0.00,VWS V14.01,2013-11-03 06:31:00,
2013-11-03 01:32:00,46.5,39.7,30.07,North,6,0.0,0.0,77,0.00,,CLR,0.00,VWS V14.01,2013-11-03 06:32:00,
2013-11-03 01:33:00,45.9,39.8,30.07,North,8,0.0,0.0,79,0.00,,CLR,0.00,VWS V14.01,2013-11-03 06:33:00,
2013-11-03 01:34:00,46.6,39.8,30.07,NNW,340,0.0,0.0,77,0.00,,CLR,0.00,VWS V14.01,2013-11-03 06:34:00,
2013-11-03 01:35:00,46.6,39.8,30.07,North,357,1.0,0.0,77,0.00,,CLR,0.00,VWS V14.01,2013-11-03 06:35:00,
2013-11-03 01:36:00,46.7,39.9,30.07,NW,323,0.0,0.0,77,0.00,,CLR,0.00,VWS V14.01,2013-11-03 06:36:00,
2013-11-03 01:37:00,46.7,39.5,30.07,NNE,13,0.0,0.0,76,0.00,,CLR,0.00,VWS V14.01,2013-11-03 06:37:00,
2013-11-03 01:38:00,45.5,39.7,30.07,North,8,0.0,0.0,80,0.00,,CLR,0.00,VWS V14.01,2013-11-03 06:38:00,
2013-11-03 01:39:00,46.9,39.7,30.07,NNW,348,0.0,0.0,76,0.00,,CLR,0.00,VWS V14.01,2013-11-03 06:39:00,
2013-11-03 01:40:00,46.9,39.7,30.07,North,7,0.0,0.0,76,0.00,,CLR,0.00,VWS V14.01,2013-11-03 06:40:00,
2013-11-03 01:41:00,46.9,39.7,30.07,North,350,0.0,0.0,76,0.00,,CLR,0.00,VWS V14.01,2013-11-03 06:41:00,
2013-11-03 01:42:00,46.9,39.7,30.07,NNW,341,0.0,0.0,76,0.00,,CLR,0.00,VWS V14.01,2013-11-03 06:42:00,
2013-11-03 01:43:00,45.0,39.8,30.08,NNW,331,0.0,0.0,82,0.00,,CLR,0.00,VWS V14.01,2013-11-03 06:43:00,
2013-11-03 01:44:00,46.9,39.7,30.07,NNW,339,1.0,0.0,76,0.00,,CLR,0.00,VWS V14.01,2013-11-03 06:44:00,
2013-11-03 01:45:00,47.0,39.8,30.07,North,359,1.0,0.0,76,0.00,,CLR,0.00,VWS V14.01,2013-11-03 06:45:00,
2013-11-03 01:46:00,47.0,39.8,30.07,North,356,0.0,0.0,76,0.00,,CLR,0.00,VWS V14.01,2013-11-03 06:46:00,
2013-11-03 01:47:00,47.0,39.8,30.06,North,359,0.0,0.0,76,0.00,,CLR,0.00,VWS V14.01,2013-11-03 06:47:00,
2013-11-03 01:48:00,44.5,40.0,30.08,NNW,330,0.0,0.0,84,0.00,,CLR,0.00,VWS V14.01,2013-11-03 06:48:00,
2013-11-03 01:49:00,47.0,39.8,30.07,NNW,341,1.0,0.0,76,0.00,,CLR,0.00,VWS V14.01,2013-11-03 06:49:00,
2013-11-03 01:50:00,47.0,39.8,30.06,NNE,18,1.0,0.0,76,0.00,,CLR,0.00,VWS V14.01,2013-11-03 06:50:00,
2013-11-03 01:51:00,47.0,39.8,30.06,NNW,331,0.0,0.0,76,0.00,,CLR,0.00,VWS V14.01,2013-11-03 06:51:00,
2013-11-03 01:52:00,47.0,39.8,30.06,North,4,1.0,0.0,76,0.00,,CLR,0.00,VWS V14.01,2013-11-03 06:52:00,
2013-11-03 01:53:00,44.2,39.7,30.08,NNW,330,0.0,0.0,84,0.00,,CLR,0.00,VWS V14.01,2013-11-03 06:53:00,
2013-11-03 01:54:00,46.9,39.7,30.07,North,354,0.0,0.0,76,0.00,,CLR,0.00,VWS V14.01,2013-11-03 06:54:00,
2013-11-03 01:55:00,46.9,39.7,30.07,North,354,0.0,0.0,76,0.00,,CLR,0.00,VWS V14.01,2013-11-03 06:55:00,
2013-11-03 01:56:00,46.9,39.7,30.06,North,354,0.0,0.0,76,0.00,,CLR,0.00,VWS V14.01,2013-11-03 06:56:00,
2013-11-03 01:57:00,46.9,39.7,30.06,North,354,0.0,0.0,76,0.00,,CLR,0.00,VWS V14.01,2013-11-03 06:57:00,
2013-11-03 01:58:00,43.9,39.4,30.07,NNW,330,0.0,0.0,84,0.00,,CLR,0.00,VWS V14.01,2013-11-03 06:58:00,
2013-11-03 01:59:00,46.8,40.0,30.06,NNE,25,0.0,0.0,77,0.00,,CLR,0.00,VWS V14.01,2013-11-03 06:59:00,
2013-11-03 02:00:00,43.8,39.3,30.07,NNW,330,0.0,0.0,84,0.00,,CLR,0.00,VWS V14.01,2013-11-03 07:00:00,
2013-11-03 02:01:00,43.8,39.6,30.08,NNW,330,0.0,0.0,85,0.00,,CLR,0.00,VWS V14.01,2013-11-03 07:01:00,
2013-11-03 02:02:00,43.7,39.5,30.08,NNW,330,0.0,0.0,85,0.00,,CLR,0.00,VWS V14.01,2013-11-03 07:02:00,
2013-11-03 02:03:00,43.6,39.4,30.08,NNW,330,0.0,0.0,85,0.00,,CLR,0.00,VWS V14.01,2013-11-03 07:03:00,
2013-11-03 02:04:00,43.5,39.3,30.08,NNW,330,0.0,0.0,85,0.00,,CLR,0.00,VWS V14.01,2013-11-03 07:04:00,
2013-11-03 02:05:00,43.5,39.3,30.08,NNW,333,1.0,0.0,85,0.00,,CLR,0.00,VWS V14.01,2013-11-03 07:05:00,
2013-11-03 02:06:00,43.4,39.2,30.08,NNW,338,0.0,0.0,85,0.00,,CLR,0.00,VWS V14.01,2013-11-03 07:06:00,
2013-11-03 02:07:00,43.5,39.3,30.08,NW,323,1.0,0.0,85,0.00,,CLR,0.00,VWS V14.01,2013-11-03 07:07:00,
2013-11-03 02:08:00,43.5,39.3,30.08,NW,323,0.0,0.0,85,0.00,,CLR,0.00,VWS V14.01,2013-11-03 07:08:00,
2013-11-03 02:09:00,43.5,39.3,30.08,NW,323,0.0,0.0,85,0.00,,CLR,0.00,VWS V14.01,2013-11-03 07:09:00,
2013-11-03 02:10:00,43.6,39.4,30.08,NNW,333,0.0,0.0,85,0.00,,CLR,0.00,VWS V14.01,2013-11-03 07:10:00,
2013-11-03 02:11:00,43.6,39.4,30.08,NNW,333,0.0,0.0,85,0.00,,CLR,0.00,VWS V14.01,2013-11-03 07:11:00,
2013-11-03 02:12:00,43.6,39.4,30.08,NNW,331,0.0,0.0,85,0.00,,CLR,0.00,VWS V14.01,2013-11-03 07:12:00,
2013-11-03 02:13:00,43.7,39.5,30.08,NNW,333,0.0,0.0,85,0.00,,CLR,0.00,VWS V14.01,2013-11-03 07:13:00,
2013-11-03 02:14:00,43.7,39.5,30.08,NNW,333,0.0,0.0,85,0.00,,CLR,0.00,VWS V14.01,2013-11-03 07:14:00,
2013-11-03 02:15:00,43.8,39.6,30.08,NNW,335,0.0,0.0,85,0.00,,CLR,0.00,VWS V14.01,2013-11-03 07:15:00,
2013-11-03 02:16:00,43.8,39.3,30.08,North,356,0.0,0.0,84,0.00,,CLR,0.00,VWS V14.01,2013-11-03 07:16:00,
2013-11-03 02:17:00,43.9,39.4,30.08,North,356,0.0,0.0,84,0.00,,CLR,0.00,VWS V14.01,2013-11-03 07:17:00,
2013-11-03 02:18:00,44.0,39.5,30.08,North,355,0.0,0.0,84,0.00,,CLR,0.00,VWS V14.01,2013-11-03 07:18:00,
2013-11-03 02:19:00,44.0,39.5,30.08,North,356,0.0,0.0,84,0.00,,CLR,0.00,VWS V14.01,2013-11-03 07:19:00,
2013-11-03 02:20:00,44.0,39.5,30.08,North,355,0.0,0.0,84,0.00,,CLR,0.00,VWS V14.01,2013-11-03 07:20:00,
2013-11-03 02:21:00,44.0,39.5,30.08,North,355,0.0,0.0,84,0.00,,CLR,0.00,VWS V14.01,2013-11-03 07:21:00,
2013-11-03 02:22:00,44.0,39.5,30.08,North,355,0.0,0.0,84,0.00,,CLR,0.00,VWS V14.01,2013-11-03 07:22:00,
2013-11-03 02:23:00,43.9,39.4,30.08,North,356,0.0,0.0,84,0.00,,CLR,0.00,VWS V14.01,2013-11-03 07:23:00,
2013-11-03 02:24:00,43.9,39.4,30.08,North,356,0.0,0.0,84,0.00,,CLR,0.00,VWS V14.01,2013-11-03 07:24:00,
2013-11-03 02:25:00,43.8,39.3,30.08,North,355,0.0,0.0,84,0.00,,CLR,0.00,VWS V14.01,2013-11-03 07:25:00,
2013-11-03 02:26:00,43.7,39.5,30.08,North,355,0.0,0.0,85,0.00,,CLR,0.00,VWS V14.01,2013-11-03 07:26:00,
2013-11-03 02:27:00,43.6,39.4,30.08,North,355,0.0,0.0,85,0.00,,CLR,0.00,VWS V14.01,2013-11-03 07:27:00,
2013-11-03 02:28:00,43.5,39.3,30.08,North,355,0.0,0.0,85,0.00,,CLR,0.00,VWS V14.01,2013-11-03 07:28:00,
2013-11-03 02:29:00,43.4,39.2,30.08,North,355,0.0,0.0,85,0.00,,CLR,0.00,VWS V14.01,2013-11-03 07:29:00,
2013-11-03 02:30:00,43.3,39.1,30.08,North,356,0.0,0.0,85,0.00,,CLR,0.00,VWS V14.01,2013-11-03 07:30:00,
2013-11-03 02:31:00,43.2,39.3,30.09,North,355,0.0,0.0,86,0.00,,CLR,0.00,VWS V14.01,2013-11-03 07:31:00,
2013-11-03 02:32:00,43.1,39.2,30.09,North,356,0.0,0.0,86,0.00,,CLR,0.00,VWS V14.01,2013-11-03 07:32:00,
2013-11-03 02:33:00,43.0,39.1,30.09,North,356,0.0,0.0,86,0.00,,CLR,0.00,VWS V14.01,2013-11-03 07:33:00,
2013-11-03 02:34:00,43.0,39.1,30.09,North,355,0.0,0.0,86,0.00,,CLR,0.00,VWS V14.01,2013-11-03 07:34:00,
2013-11-03 02:35:00,43.0,39.1,30.09,North,355,0.0,0.0,86,0.00,,CLR,0.00,VWS V14.01,2013-11-03 07:35:00,
2013-11-03 02:36:00,43.0,39.1,30.09,North,355,0.0,0.0,86,0.00,,CLR,0.00,VWS V14.01,2013-11-03 07:36:00,
2013-11-03 02:37:00,43.0,39.1,30.09,North,355,0.0,0.0,86,0.00,,CLR,0.00,VWS V14.01,2013-11-03 07:37:00,
2013-11-03 02:38:00,43.1,39.2,30.09,North,356,0.0,0.0,86,0.00,,CLR,0.00,VWS V14.01,2013-11-03 07:38:00,
2013-11-03 02:39:00,43.1,39.2,30.09,North,355,0.0,0.0,86,0.00,,CLR,0.00,VWS V14.01,2013-11-03 07:39:00,
2013-11-03 02:40:00,43.1,39.2,30.09,North,355,0.0,0.0,86,0.00,,CLR,0.00,VWS V14.01,2013-11-03 07:40:00,
2013-11-03 02:41:00,43.1,39.2,30.08,North,355,0.0,0.0,86,0.00,,CLR,0.00,VWS V14.01,2013-11-03 07:41:00,
2013-11-03 02:42:00,43.1,39.2,30.09,North,355,0.0,0.0,86,0.00,,CLR,0.00,VWS V14.01,2013-11-03 07:42:00,
2013-11-03 02:43:00,43.1,39.2,30.09,North,356,0.0,0.0,86,0.00,,CLR,0.00,VWS V14.01,2013-11-03 07:43:00,
2013-11-03 02:44:00,43.1,39.2,30.09,North,355,0.0,0.0,86,0.00,,CLR,0.00,VWS V14.01,2013-11-03 07:44:00,
2013-11-03 02:45:00,43.0,39.1,30.09,North,356,0.0,0.0,86,0.00,,CLR,0.00,VWS V14.01,2013-11-03 07:45:00,
2013-11-03 02:46:00,43.0,39.1,30.09,North,355,0.0,0.0,86,0.00,,CLR,0.00,VWS V14.01,2013-11-03 07:46:00,
2013-11-03 02:47:00,43.0,39.1,30.09,North,355,0.0,0.0,86,0.00,,CLR,0.00,VWS V14.01,2013-11-03 07:47:00,
2013-11-03 02:48:00,42.9,39.0,30.09,North,355,0.0,0.0,86,0.00,,CLR,0.00,VWS V14.01,2013-11-03 07:48:00,
2013-11-03 02:49:00,42.9,39.0,30.09,North,355,0.0,0.0,86,0.00,,CLR,0.00,VWS V14.01,2013-11-03 07:49:00,
2013-11-03 02:50:00,42.8,38.9,30.09,North,355,0.0,0.0,86,0.00,,CLR,0.00,VWS V14.01,2013-11-03 07:50:00,
2013-11-03 02:51:00,42.8,38.9,30.08,North,355,0.0,0.0,86,0.00,,CLR,0.00,VWS V14.01,2013-11-03 07:51:00,
2013-11-03 02:52:00,42.7,39.1,30.08,North,356,0.0,0.0,87,0.00,,CLR,0.00,VWS V14.01,2013-11-03 07:52:00,
2013-11-03 02:53:00,42.6,39.0,30.08,North,355,0.0,0.0,87,0.00,,CLR,0.00,VWS V14.01,2013-11-03 07:53:00,
2013-11-03 02:54:00,42.5,38.9,30.08,North,355,0.0,0.0,87,0.00,,CLR,0.00,VWS V14.01,2013-11-03 07:54:00,
2013-11-03 02:55:00,42.4,38.8,30.08,North,355,0.0,0.0,87,0.00,,CLR,0.00,VWS V14.01,2013-11-03 07:55:00,
2013-11-03 02:56:00,42.4,38.8,30.08,North,355,0.0,0.0,87,0.00,,CLR,0.00,VWS V14.01,2013-11-03 07:56:00,
2013-11-03 02:57:00,42.4,39.1,30.08,North,356,0.0,0.0,88,0.00,,CLR,0.00,VWS V14.01,2013-11-03 07:57:00,
2013-11-03 02:58:00,42.4,39.1,30.08,North,355,0.0,0.0,88,0.00,,CLR,0.00,VWS V14.01,2013-11-03 07:58:00,
2013-11-03 02:59:00,42.4,39.1,30.08,North,355,0.0,0.0,88,0.00,,CLR,0.00,VWS V14.01,2013-11-03 07:59:00,
2013-11-03 03:00:00,42.4,39.1,30.08,North,355,0.0,0.0,88,0.00,,CLR,0.00,VWS V14.01,2013-11-03 08:00:00,
2013-11-03 03:01:00,42.4,39.1,30.08,North,355,0.0,0.0,88,0.00,,CLR,0.00,VWS V14.01,2013-11-03 08:01:00,
2013-11-03 03:02:00,42.4,39.1,30.09,North,355,0.0,0.0,88,0.00,,CLR,0.00,VWS V14.01,2013-11-03 08:02:00,
2013-11-03 03:03:00,42.5,39.2,30.09,North,355,0.0,0.0,88,0.00,,CLR,0.00,VWS V14.01,2013-11-03 08:03:00,
2013-11-03 03:04:00,42.5,39.2,30.08,North,357,0.0,0.0,88,0.00,,CLR,0.00,VWS V14.01,2013-11-03 08:04:00,
2013-11-03 03:05:00,42.6,39.3,30.08,North,356,0.0,0.0,88,0.00,,CLR,0.00,VWS V14.01,2013-11-03 08:05:00,
2013-11-03 03:06:00,42.8,39.5,30.09,North,356,0.0,0.0,88,0.00,,CLR,0.00,VWS V14.01,2013-11-03 08:06:00,
2013-11-03 03:08:00,42.9,39.3,30.09,North,1,0.0,0.0,87,0.00,,CLR,0.00,VWS V14.01,2013-11-03 08:08:00,
2013-11-03 03:09:00,43.0,39.4,30.09,North,360,0.0,0.0,87,0.00,,CLR,0.00,VWS V14.01,2013-11-03 08:09:00,
2013-11-03 03:10:00,43.0,39.4,30.09,North,360,0.0,0.0,87,0.00,,CLR,0.00,VWS V14.01,2013-11-03 08:10:00,
2013-11-03 03:11:00,43.0,39.4,30.09,North,359,0.0,0.0,87,0.00,,CLR,0.00,VWS V14.01,2013-11-03 08:11:00,
2013-11-03 03:12:00,43.0,39.4,30.09,North,360,0.0,0.0,87,0.00,,CLR,0.00,VWS V14.01,2013-11-03 08:12:00,
2013-11-03 03:13:00,43.0,39.4,30.09,North,360,0.0,0.0,87,0.00,,CLR,0.00,VWS V14.01,2013-11-03 08:13:00,
2013-11-03 03:14:00,42.9,39.3,30.09,North,360,0.0,0.0,87,0.00,,CLR,0.00,VWS V14.01,2013-11-03 08:14:00,
2013-11-03 03:15:00,42.9,39.3,30.09,North,360,0.0,0.0,87,0.00,,CLR,0.00,VWS V14.01,2013-11-03 08:15:00,
2013-11-03 03:16:00,42.9,39.3,30.09,North,360,0.0,0.0,87,0.00,,CLR,0.00,VWS V14.01,2013-11-03 08:16:00,
2013-11-03 03:17:00,42.8,39.2,30.09,North,360,0.0,0.0,87,0.00,,CLR,0.00,VWS V14.01,2013-11-03 08:17:00,
2013-11-03 03:18:00,42.8,39.2,30.09,North,360,0.0,0.0,87,0.00,,CLR,0.00,VWS V14.01,2013-11-03 08:18:00,
2013-11-03 03:19:00,42.8,39.2,30.09,North,360,0.0,0.0,87,0.00,,CLR,0.00,VWS V14.01,2013-11-03 08:19:00,
2013-11-03 03:20:00,42.7,39.1,30.09,North,360,0.0,0.0,87,0.00,,CLR,0.00,VWS V14.01,2013-11-03 08:20:00,
2013-11-03 03:21:00,42.7,39.1,30.09,North,360,0.0,0.0,87,0.00,,CLR,0.00,VWS V14.01,2013-11-03 08:21:00,
2013-11-03 03:22:00,42.6,39.0,30.09,North,360,0.0,0.0,87,0.00,,CLR,0.00,VWS V14.01,2013-11-03 08:22:00,
2013-11-03 03:23:00,42.6,39.0,30.09,North,360,0.0,0.0,87,0.00,,CLR,0.00,VWS V14.01,2013-11-03 08:23:00,
2013-11-03 03:24:00,42.5,38.9,30.09,North,354,0.0,0.0,87,0.00,,CLR,0.00,VWS V14.01,2013-11-03 08:24:00,
2013-11-03 03:25:00,42.5,39.2,30.09,North,351,0.0,0.0,88,0.00,,CLR,0.00,VWS V14.01,2013-11-03 08:25:00,
2013-11-03 03:26:00,42.5,39.2,30.09,NNW,342,0.0,0.0,88,0.00,,CLR,0.00,VWS V14.01,2013-11-03 08:26:00,
2013-11-03 03:27:00,42.5,39.2,30.09,NNW,341,0.0,0.0,88,0.00,,CLR,0.00,VWS V14.01,2013-11-03 08:27:00,
2013-11-03 03:28:00,42.5,39.2,30.09,NNW,341,0.0,0.0,88,0.00,,CLR,0.00,VWS V14.01,2013-11-03 08:28:00,
2013-11-03 03:29:00,42.5,39.2,30.09,NNW,341,0.0,0.0,88,0.00,,CLR,0.00,VWS V14.01,2013-11-03 08:29:00,
2013-11-03 03:30:00,42.6,39.3,30.09,NNW,341,0.0,0.0,88,0.00,,CLR,0.00,VWS V14.01,2013-11-03 08:30:00,
2013-11-03 03:31:00,42.6,39.3,30.09,NNW,341,0.0,0.0,88,0.00,,CLR,0.00,VWS V14.01,2013-11-03 08:31:00,
2013-11-03 03:32:00,42.6,39.3,30.09,NNW,341,0.0,0.0,88,0.00,,CLR,0.00,VWS V14.01,2013-11-03 08:32:00,
2013-11-03 03:33:00,42.6,39.3,30.09,NNW,341,0.0,0.0,88,0.00,,CLR,0.00,VWS V14.01,2013-11-03 08:33:00,
2013-11-03 03:34:00,42.6,39.3,30.09,NNW,341,0.0,0.0,88,0.00,,CLR,0.00,VWS V14.01,2013-11-03 08:34:00,
2013-11-03 03:35:00,42.6,39.0,30.09,NNW,341,0.0,0.0,87,0.00,,CLR,0.00,VWS V14.01,2013-11-03 08:35:00,
2013-11-03 03:36:00,42.6,39.0,30.09,NNW,342,0.0,0.0,87,0.00,,CLR,0.00,VWS V14.01,2013-11-03 08:36:00,
2013-11-03 03:37:00,42.6,39.0,30.09,NNW,342,0.0,0.0,87,0.00,,CLR,0.00,VWS V14.01,2013-11-03 08:37:00,
2013-11-03 03:38:00,42.6,39.0,30.09,NNW,341,0.0,0.0,87,0.00,,CLR,0.00,VWS V14.01,2013-11-03 08:38:00,
2013-11-03 03:39:00,42.6,39.0,30.09,NNW,341,0.0,0.0,87,0.00,,CLR,0.00,VWS V14.01,2013-11-03 08:39:00,
2013-11-03 03:40:00,42.5,38.9,30.09,NNW,341,0.0,0.0,87,0.00,,CLR,0.00,VWS V14.01,2013-11-03 08:40:00,
2013-11-03 03:41:00,42.5,38.9,30.09,NNW,341,0.0,0.0,87,0.00,,CLR,0.00,VWS V14.01,2013-11-03 08:41:00,
2013-11-03 03:42:00,42.5,38.9,30.09,NNW,339,0.0,0.0,87,0.00,,CLR,0.00,VWS V14.01,2013-11-03 08:42:00,
2013-11-03 03:43:00,42.5,38.9,30.09,NNW,339,0.0,0.0,87,0.00,,CLR,0.00,VWS V14.01,2013-11-03 08:43:00,
2013-11-03 03:44:00,42.5,38.9,30.09,NNW,339,0.0,0.0,87,0.00,,CLR,0.00,VWS V14.01,2013-11-03 08:44:00,
2013-11-03 03:45:00,42.5,38.9,30.09,NNW,339,0.0,0.0,87,0.00,,CLR,0.00,VWS V14.01,2013-11-03 08:45:00,
2013-11-03 03:46:00,42.5,38.9,30.09,NNW,339,0.0,0.0,87,0.00,,CLR,0.00,VWS V14.01,2013-11-03 08:46:00,
2013-11-03 03:47:00,42.5,38.9,30.09,NNW,339,0.0,0.0,87,0.00,,CLR,0.00,VWS V14.01,2013-11-03 08:47:00,
2013-11-03 03:48:00,42.5,38.9,30.09,NNW,339,0.0,0.0,87,0.00,,CLR,0.00,VWS V14.01,2013-11-03 08:48:00,
2013-11-03 03:49:00,42.6,39.0,30.09,NNW,339,0.0,0.0,87,0.00,,CLR,0.00,VWS V14.01,2013-11-03 08:49:00,
2013-11-03 03:50:00,42.6,39.0,30.09,NNW,339,0.0,0.0,87,0.00,,CLR,0.00,VWS V14.01,2013-11-03 08:50:00,
2013-11-03 03:51:00,42.5,38.9,30.09,NNW,339,0.0,0.0,87,0.00,,CLR,0.00,VWS V14.01,2013-11-03 08:51:00,
2013-11-03 03:52:00,42.5,38.9,30.09,NNW,339,0.0,0.0,87,0.00,,CLR,0.00,VWS V14.01,2013-11-03 08:52:00,
2013-11-03 03:53:00,42.5,38.9,30.09,NNW,338,0.0,0.0,87,0.00,,CLR,0.00,VWS V14.01,2013-11-03 08:53:00,
2013-11-03 03:54:00,42.5,38.9,30.09,NNW,339,0.0,0.0,87,0.00,,CLR,0.00,VWS V14.01,2013-11-03 08:54:00,
2013-11-03 03:55:00,42.4,38.8,30.09,NNW,339,0.0,0.0,87,0.00,,CLR,0.00,VWS V14.01,2013-11-03 08:55:00,
2013-11-03 03:56:00,42.4,38.8,30.09,North,355,0.0,0.0,87,0.00,,CLR,0.00,VWS V14.01,2013-11-03 08:56:00,
2013-11-03 03:57:00,42.4,38.8,30.10,North,355,0.0,0.0,87,0.00,,CLR,0.00,VWS V14.01,2013-11-03 08:57:00,
2013-11-03 03:58:00,42.4,38.8,30.10,North,354,0.0,0.0,87,0.00,,CLR,0.00,VWS V14.01,2013-11-03 08:58:00,
2013-11-03 03:59:00,42.4,39.1,30.10,North,349,0.0,0.0,88,0.00,,CLR,0.00,VWS V14.01,2013-11-03 08:59:00,
2013-11-03 04:00:00,42.4,39.1,30.10,North,349,0.0,0.0,88,0.00,,CLR,0.00,VWS V14.01,2013-11-03 09:00:00,
2013-11-03 04:01:00,42.4,39.1,30.10,NNW,346,0.0,0.0,88,0.00,,CLR,0.00,VWS V14.01,2013-11-03 09:01:00,
2013-11-03 04:02:00,42.5,39.2,30.10,NNW,345,0.0,0.0,88,0.00,,CLR,0.00,VWS V14.01,2013-11-03 09:02:00,
2013-11-03 04:03:00,42.5,38.9,30.10,NNW,346,0.0,0.0,87,0.00,,CLR,0.00,VWS V14.01,2013-11-03 09:03:00,
2013-11-03 04:04:00,42.4,38.8,30.10,NNW,346,0.0,0.0,87,0.00,,CLR,0.00,VWS V14.01,2013-11-03 09:04:00,
2013-11-03 04:05:00,42.4,38.8,30.10,NNW,346,0.0,0.0,87,0.00,,CLR,0.00,VWS V14.01,2013-11-03 09:05:00,
2013-11-03 04:06:00,42.4,38.8,30.10,NNW,345,0.0,0.0,87,0.00,,CLR,0.00,VWS V14.01,2013-11-03 09:06:00,
2013-11-03 04:07:00,42.3,38.7,30.10,NNW,345,0.0,0.0,87,0.00,,CLR,0.00,VWS V14.01,2013-11-03 09:07:00,
2013-11-03 04:08:00,42.2,38.6,30.10,NNW,346,0.0,0.0,87,0.00,,CLR,0.00,VWS V14.01,2013-11-03 09:08:00,
2013-11-03 04:09:00,42.1,38.8,30.10,NNW,345,0.0,0.0,88,0.00,,CLR,0.00,VWS V14.01,2013-11-03 09:09:00,
2013-11-03 04:10:00,42.0,38.7,30.10,NNW,346,0.0,0.0,88,0.00,,CLR,0.00,VWS V14.01,2013-11-03 09:10:00,
2013-11-03 04:11:00,41.9,38.6,30.10,NNW,346,0.0,0.0,88,0.00,,CLR,0.00,VWS V14.01,2013-11-03 09:11:00,
2013-11-03 04:12:00,41.8,38.5,30.10,NNW,345,0.0,0.0,88,0.00,,CLR,0.00,VWS V14.01,2013-11-03 09:12:00,
2013-11-03 04:13:00,41.7,38.7,30.10,NNW,346,0.0,0.0,89,0.00,,CLR,0.00,VWS V14.01,2013-11-03 09:13:00,
2013-11-03 04:14:00,41.6,38.6,30.10,NNW,346,0.0,0.0,89,0.00,,CLR,0.00,VWS V14.01,2013-11-03 09:14:00,
2013-11-03 04:15:00,41.6,38.6,30.10,NNW,345,0.0,0.0,89,0.00,,CLR,0.00,VWS V14.01,2013-11-03 09:15:00,
2013-11-03 04:16:00,41.5,38.5,30.10,NNW,345,0.0,0.0,89,0.00,,CLR,0.00,VWS V14.01,2013-11-03 09:16:00,
2013-11-03 04:17:00,41.4,38.7,30.09,NNW,345,0.0,0.0,90,0.00,,CLR,0.00,VWS V14.01,2013-11-03 09:17:00,
2013-11-03 04:18:00,41.4,38.7,30.10,NNW,346,0.0,0.0,90,0.00,,CLR,0.00,VWS V14.01,2013-11-03 09:18:00,
2013-11-03 04:19:00,41.3,38.6,30.10,NNW,346,0.0,0.0,90,0.00,,CLR,0.00,VWS V14.01,2013-11-03 09:19:00,
2013-11-03 04:20:00,41.3,38.6,30.10,NNW,346,0.0,0.0,90,0.00,,CLR,0.00,VWS V14.01,2013-11-03 09:20:00,
2013-11-03 04:21:00,41.2,38.5,30.10,NNW,346,0.0,0.0,90,0.00,,CLR,0.00,VWS V14.01,2013-11-03 09:21:00,
2013-11-03 04:22:00,41.2,38.8,30.10,NNW,346,0.0,0.0,91,0.00,,CLR,0.00,VWS V14.01,2013-11-03 09:22:00,
2013-11-03 04:23:00,41.2,38.8,30.10,NNW,345,0.0,0.0,91,0.00,,CLR,0.00,VWS V14.01,2013-11-03 09:23:00,
2013-11-03 04:24:00,41.1,38.7,30.10,NNW,346,0.0,0.0,91,0.00,,CLR,0.00,VWS V14.01,2013-11-03 09:24:00,
2013-11-03 04:25:00,41.1,38.7,30.10,NNW,346,0.0,0.0,91,0.00,,CLR,0.00,VWS V14.01,2013-11-03 09:25:00,
2013-11-03 04:26:00,41.1,38.7,30.10,NNW,345,0.0,0.0,91,0.00,,CLR,0.00,VWS V14.01,2013-11-03 09:26:00,
2013-11-03 04:27:00,41.0,38.6,30.10,NNW,346,0.0,0.0,91,0.00,,CLR,0.00,VWS V14.01,2013-11-03 09:27:00,
2013-11-03 04:28:00,41.0,38.6,30.10,NNW,346,0.0,0.0,91,0.00,,CLR,0.00,VWS V14.01,2013-11-03 09:28:00,
2013-11-03 04:29:00,41.0,38.6,30.10,NNW,346,0.0,0.0,91,0.00,,CLR,0.00,VWS V14.01,2013-11-03 09:29:00,
2013-11-03 04:30:00,41.0,38.6,30.10,NNW,346,0.0,0.0,91,0.00,,CLR,0.00,VWS V14.01,2013-11-03 09:30:00,
2013-11-03 04:31:00,41.0,38.6,30.10,NNW,346,0.0,0.0,91,0.00,,CLR,0.00,VWS V14.01,2013-11-03 09:31:00,
2013-11-03 04:32:00,41.0,38.6,30.10,NNW,346,0.0,0.0,91,0.00,,CLR,0.00,VWS V14.01,2013-11-03 09:32:00,
2013-11-03 04:33:00,41.0,38.6,30.10,NNW,346,0.0,0.0,91,0.00,,CLR,0.00,VWS V14.01,2013-11-03 09:33:00,
2013-11-03 04:34:00,41.0,38.6,30.10,NNW,346,0.0,0.0,91,0.00,,CLR,0.00,VWS V14.01,2013-11-03 09:34:00,
2013-11-03 04:35:00,41.0,38.6,30.10,NNW,346,0.0,0.0,91,0.00,,CLR,0.00,VWS V14.01,2013-11-03 09:35:00,
2013-11-03 04:36:00,41.0,38.6,30.10,NNW,345,0.0,0.0,91,0.00,,CLR,0.00,VWS V14.01,2013-11-03 09:36:00,
2013-11-03 04:37:00,41.0,38.9,30.10,NNW,346,0.0,0.0,92,0.00,,CLR,0.00,VWS V14.01,2013-11-03 09:37:00,
2013-11-03 04:38:00,41.1,39.0,30.10,NNW,345,0.0,0.0,92,0.00,,CLR,0.00,VWS V14.01,2013-11-03 09:38:00,
2013-11-03 04:39:00,41.1,39.0,30.10,NNW,346,0.0,0.0,92,0.00,,CLR,0.00,VWS V14.01,2013-11-03 09:39:00,
2013-11-03 04:40:00,41.1,39.0,30.10,NNW,346,0.0,0.0,92,0.00,,CLR,0.00,VWS V14.01,2013-11-03 09:40:00,
2013-11-03 04:41:00,41.1,39.0,30.10,NNW,345,0.0,0.0,92,0.00,,CLR,0.00,VWS V14.01,2013-11-03 09:41:00,
2013-11-03 04:42:00,41.1,39.0,30.10,NNW,345,0.0,0.0,92,0.00,,CLR,0.00,VWS V14.01,2013-11-03 09:42:00,
2013-11-03 04:43:00,41.2,39.1,30.11,NNW,346,0.0,0.0,92,0.00,,CLR,0.00,VWS V14.01,2013-11-03 09:43:00,
2013-11-03 04:44:00,41.2,39.1,30.10,NNW,346,0.0,0.0,92,0.00,,CLR,0.00,VWS V14.01,2013-11-03 09:44:00,
2013-11-03 04:45:00,41.2,39.1,30.11,NNW,346,0.0,0.0,92,0.00,,CLR,0.00,VWS V14.01,2013-11-03 09:45:00,
2013-11-03 04:46:00,41.3,39.2,30.11,NNW,346,0.0,0.0,92,0.00,,CLR,0.00,VWS V14.01,2013-11-03 09:46:00,
2013-11-03 04:47:00,41.3,39.2,30.10,NNW,346,0.0,0.0,92,0.00,,CLR,0.00,VWS V14.01,2013-11-03 09:47:00,
2013-11-03 04:48:00,41.3,39.2,30.10,NNW,346,0.0,0.0,92,0.00,,CLR,0.00,VWS V14.01,2013-11-03 09:48:00,
2013-11-03 04:49:00,41.3,39.2,30.10,NNW,345,0.0,0.0,92,0.00,,CLR,0.00,VWS V14.01,2013-11-03 09:49:00,
2013-11-03 04:50:00,41.3,39.2,30.11,NNW,345,0.0,0.0,92,0.00,,CLR,0.00,VWS V14.01,2013-11-03 09:50:00,
2013-11-03 04:51:00,41.4,39.3,30.11,NNW,346,0.0,0.0,92,0.00,,CLR,0.00,VWS V14.01,2013-11-03 09:51:00,
2013-11-03 04:52:00,41.4,39.3,30.11,NNW,345,0.0,0.0,92,0.00,,CLR,0.00,VWS V14.01,2013-11-03 09:52:00,
2013-11-03 04:53:00,41.4,39.3,30.11,NNW,345,0.0,0.0,92,0.00,,CLR,0.00,VWS V14.01,2013-11-03 09:53:00,
2013-11-03 04:54:00,41.4,39.2,30.11,NNW,346,0.0,0.0,92,0.00,,CLR,0.00,VWS V14.01,2013-11-03 09:54:00,
2013-11-03 04:55:00,41.5,39.3,30.11,NNW,345,0.0,0.0,92,0.00,,CLR,0.00,VWS V14.01,2013-11-03 09:55:00,
2013-11-03 04:56:00,41.5,39.3,30.11,NNW,345,0.0,0.0,92,0.00,,CLR,0.00,VWS V14.01,2013-11-03 09:56:00,
2013-11-03 04:57:00,41.5,39.3,30.11,NNW,345,0.0,0.0,92,0.00,,CLR,0.00,VWS V14.01,2013-11-03 09:57:00,
2013-11-03 04:58:00,41.6,39.5,30.11,NNW,346,0.0,0.0,92,0.00,,CLR,0.00,VWS V14.01,2013-11-03 09:58:00,
2013-11-03 04:59:00,41.7,39.5,30.11,NNW,345,0.0,0.0,92,0.00,,CLR,0.00,VWS V14.01,2013-11-03 09:59:00,
2013-11-03 05:00:00,41.8,39.7,30.11,NNW,345,0.0,0.0,92,0.00,,CLR,0.00,VWS V14.01,2013-11-03 10:00:00,
2013-11-03 05:01:00,41.8,39.4,30.11,NNW,345,0.0,0.0,91,0.00,,CLR,0.00,VWS V14.01,2013-11-03 10:01:00,
2013-11-03 05:02:00,41.9,39.5,30.11,NNW,346,0.0,0.0,91,0.00,,CLR,0.00,VWS V14.01,2013-11-03 10:02:00,
2013-11-03 05:03:00,41.8,39.4,30.11,NNW,346,0.0,0.0,91,0.00,,CLR,0.00,VWS V14.01,2013-11-03 10:03:00,
2013-11-03 05:04:00,41.8,39.4,30.11,NNW,345,0.0,0.0,91,0.00,,CLR,0.00,VWS V14.01,2013-11-03 10:04:00,
2013-11-03 05:05:00,41.8,39.4,30.11,NNW,346,0.0,0.0,91,0.00,,CLR,0.00,VWS V14.01,2013-11-03 10:05:00,
2013-11-03 05:06:00,41.8,39.4,30.11,NNW,346,0.0,0.0,91,0.00,,CLR,0.00,VWS V14.01,2013-11-03 10:06:00,
2013-11-03 05:07:00,41.8,39.4,30.12,NNW,345,0.0,0.0,91,0.00,,CLR,0.00,VWS V14.01,2013-11-03 10:07:00,
2013-11-03 05:08:00,41.8,39.4,30.12,NNW,346,0.0,0.0,91,0.00,,CLR,0.00,VWS V14.01,2013-11-03 10:08:00,
2013-11-03 05:09:00,41.7,39.3,30.12,NNW,346,0.0,0.0,91,0.00,,CLR,0.00,VWS V14.01,2013-11-03 10:09:00,
2013-11-03 05:10:00,41.7,39.3,30.12,NNW,346,0.0,0.0,91,0.00,,CLR,0.00,VWS V14.01,2013-11-03 10:10:00,
2013-11-03 05:11:00,41.7,39.3,30.12,NNW,345,0.0,0.0,91,0.00,,CLR,0.00,VWS V14.01,2013-11-03 10:11:00,
2013-11-03 05:12:00,41.7,39.3,30.12,NNW,345,0.0,0.0,91,0.00,,CLR,0.00,VWS V14.01,2013-11-03 10:12:00,
2013-11-03 05:13:00,41.6,39.2,30.12,NNW,345,0.0,0.0,91,0.00,,CLR,0.00,VWS V14.01,2013-11-03 10:13:00,
2013-11-03 05:14:00,41.6,39.2,30.12,NNW,343,0.0,0.0,91,0.00,,CLR,0.00,VWS V14.01,2013-11-03 10:14:00,
2013-11-03 05:15:00,41.6,39.2,30.12,NNW,342,0.0,0.0,91,0.00,,CLR,0.00,VWS V14.01,2013-11-03 10:15:00,
2013-11-03 05:16:00,41.7,39.3,30.12,NNW,342,0.0,0.0,91,0.00,,CLR,0.00,VWS V14.01,2013-11-03 10:16:00,
2013-11-03 05:17:00,41.7,39.3,30.12,NNW,343,0.0,0.0,91,0.00,,CLR,0.00,VWS V14.01,2013-11-03 10:17:00,
2013-11-03 05:18:00,41.7,39.3,30.12,NNW,342,0.0,0.0,91,0.00,,CLR,0.00,VWS V14.01,2013-11-03 10:18:00,
2013-11-03 05:19:00,41.8,39.4,30.12,NNW,342,0.0,0.0,91,0.00,,CLR,0.00,VWS V14.01,2013-11-03 10:19:00,
2013-11-03 05:20:00,41.8,39.4,30.12,West,260,0.0,0.0,91,0.00,,CLR,0.00,VWS V14.01,2013-11-03 10:20:00,
2013-11-03 05:21:00,41.8,39.4,30.13,West,260,0.0,0.0,91,0.00,,CLR,0.00,VWS V14.01,2013-11-03 10:21:00,
2013-11-03 05:22:00,41.9,39.5,30.13,West,260,0.0,0.0,91,0.00,,CLR,0.00,VWS V14.01,2013-11-03 10:22:00,
2013-11-03 05:23:00,41.9,39.5,30.13,West,260,0.0,0.0,91,0.00,,CLR,0.00,VWS V14.01,2013-11-03 10:23:00,
2013-11-03 05:24:00,41.9,39.5,30.13,West,260,0.0,0.0,91,0.00,,CLR,0.00,VWS V14.01,2013-11-03 10:24:00,
2013-11-03 05:25:00,41.9,39.5,30.13,West,259,0.0,0.0,91,0.00,,CLR,0.00,VWS V14.01,2013-11-03 10:25:00,
2013-11-03 05:26:00,41.9,39.5,30.13,West,260,0.0,0.0,91,0.00,,CLR,0.00,VWS V14.01,2013-11-03 10:26:00,
2013-11-03 05:27:00,41.9,39.5,30.13,West,260,0.0,0.0,91,0.00,,CLR,0.00,VWS V14.01,2013-11-03 10:27:00,
2013-11-03 05:28:00,41.9,39.5,30.13,West,260,0.0,0.0,91,0.00,,CLR,0.00,VWS V14.01,2013-11-03 10:28:00,
2013-11-03 05:29:00,41.8,39.4,30.13,West,260,0.0,0.0,91,0.00,,CLR,0.00,VWS V14.01,2013-11-03 10:29:00,
2013-11-03 05:30:00,41.8,39.4,30.13,West,259,0.0,0.0,91,0.00,,CLR,0.00,VWS V14.01,2013-11-03 10:30:00,
2013-11-03 05:31:00,41.7,39.3,30.13,West,260,0.0,0.0,91,0.00,,CLR,0.00,VWS V14.01,2013-11-03 10:31:00,
2013-11-03 05:32:00,41.6,39.2,30.13,West,260,0.0,0.0,91,0.00,,CLR,0.00,VWS V14.01,2013-11-03 10:32:00,
2013-11-03 05:33:00,41.6,39.2,30.13,West,260,0.0,0.0,91,0.00,,CLR,0.00,VWS V14.01,2013-11-03 10:33:00,
2013-11-03 05:34:00,41.6,39.2,30.13,West,260,0.0,0.0,91,0.00,,CLR,0.00,VWS V14.01,2013-11-03 10:34:00,
2013-11-03 05:35:00,41.5,39.1,30.13,West,260,0.0,0.0,91,0.00,,CLR,0.00,VWS V14.01,2013-11-03 10:35:00,
2013-11-03 05:36:00,41.5,39.1,30.13,West,259,0.0,0.0,91,0.00,,CLR,0.00,VWS V14.01,2013-11-03 10:36:00,
2013-11-03 05:37:00,41.5,39.3,30.13,West,260,0.0,0.0,92,0.00,,CLR,0.00,VWS V14.01,2013-11-03 10:37:00,
2013-11-03 05:38:00,41.5,39.3,30.13,West,260,0.0,0.0,92,0.00,,CLR,0.00,VWS V14.01,2013-11-03 10:38:00,
2013-11-03 05:39:00,41.4,39.2,30.13,West,260,0.0,0.0,92,0.00,,CLR,0.00,VWS V14.01,2013-11-03 10:39:00,
2013-11-03 05:40:00,41.4,39.3,30.13,West,260,0.0,0.0,92,0.00,,CLR,0.00,VWS V14.01,2013-11-03 10:40:00,
2013-11-03 05:41:00,41.4,39.3,30.13,West,260,0.0,0.0,92,0.00,,CLR,0.00,VWS V14.01,2013-11-03 10:41:00,
2013-11-03 05:44:00,41.2,39.1,30.14,West,259,0.0,0.0,92,0.00,,CLR,0.00,VWS V14.01,2013-11-03 10:44:00,
2013-11-03 05:51:00,41.0,38.9,30.14,North,0,0.0,0.0,92,0.00,,CLR,0.00,VWS V14.01,2013-11-03 10:51:00,
2013-11-03 05:56:00,40.8,38.9,30.14,West,260,0.0,0.0,93,0.00,,CLR,0.00,VWS V14.01,2013-11-03 10:56:00,
2013-11-03 06:01:00,40.7,38.8,30.14,West,260,0.0,0.0,93,0.00,,CLR,0.00,VWS V14.01,2013-11-03 11:01:00,
2013-11-03 06:06:00,40.6,38.7,30.15,West,260,0.0,0.0,93,0.00,,CLR,0.00,VWS V14.01,2013-11-03 11:06:00,
2013-11-03 06:11:00,40.6,38.7,30.15,West,260,0.0,0.0,93,0.00,,CLR,0.00,VWS V14.01,2013-11-03 11:11:00,
2013-11-03 06:16:00,40.5,38.6,30.15,West,259,0.0,0.0,93,0.00,,CLR,0.00,VWS V14.01,2013-11-03 11:16:00,
2013-11-03 06:21:00,40.4,38.8,30.15,West,260,0.0,0.0,94,0.00,,CLR,0.00,VWS V14.01,2013-11-03 11:21:00,
2013-11-03 06:26:00,40.3,38.4,30.15,West,260,0.0,0.0,93,0.00,,CLR,0.00,VWS V14.01,2013-11-03 11:26:00,
2013-11-03 06:31:00,40.2,38.6,30.16,West,260,0.0,0.0,94,0.00,,CLR,0.00,VWS V14.01,2013-11-03 11:31:00,
2013-11-03 06:36:00,40.1,38.5,30.16,West,260,0.0,0.0,94,0.00,,CLR,0.00,VWS V14.01,2013-11-03 11:36:00,
2013-11-03 06:41:00,40.1,38.5,30.16,West,260,0.0,0.0,94,0.00,,CLR,0.00,VWS V14.01,2013-11-03 11:41:00,
2013-11-03 06:46:00,40.0,38.7,30.16,NW,326,0.0,0.0,95,0.00,,CLR,0.00,VWS V14.01,2013-11-03 11:46:00,
2013-11-03 06:51:00,40.2,38.9,30.16,NNW,334,0.0,0.0,95,0.00,,CLR,0.00,VWS V14.01,2013-11-03 11:51:00,
2013-11-03 06:56:00,40.2,38.9,30.17,NNW,333,0.0,0.0,95,0.00,,CLR,0.00,VWS V14.01,2013-11-03 11:56:00,
2013-11-03 07:01:00,40.3,39.0,30.17,NNW,333,0.0,0.0,95,0.00,,CLR,0.00,VWS V14.01,2013-11-03 12:01:00,
2013-11-03 07:06:00,40.2,38.9,30.17,NNW,333,0.0,0.0,95,0.00,,CLR,0.00,VWS V14.01,2013-11-03 12:06:00,
2013-11-03 07:11:00,40.2,38.9,30.17,NNW,333,0.0,0.0,95,0.00,,CLR,0.00,VWS V14.01,2013-11-03 12:11:00,
2013-11-03 07:16:00,40.2,38.9,30.18,NNW,333,0.0,0.0,95,0.00,,CLR,0.00,VWS V14.01,2013-11-03 12:16:00,
2013-11-03 07:21:00,40.3,39.0,30.18,NNW,333,0.0,0.0,95,0.00,,CLR,0.00,VWS V14.01,2013-11-03 12:21:00,
2013-11-03 07:26:00,40.5,39.2,30.18,NNW,333,0.0,0.0,95,0.00,,CLR,0.00,VWS V14.01,2013-11-03 12:26:00,
2013-11-03 07:31:00,40.6,39.3,30.18,NNW,333,0.0,0.0,95,0.00,,CLR,0.00,VWS V14.01,2013-11-03 12:31:00,
2013-11-03 07:36:00,40.7,39.4,30.18,NNW,333,0.0,0.0,95,0.00,,CLR,0.00,VWS V14.01,2013-11-03 12:36:00,
2013-11-03 07:41:00,41.1,39.8,30.18,NNW,333,0.0,0.0,95,0.00,,CLR,0.00,VWS V14.01,2013-11-03 12:41:00,
2013-11-03 07:46:00,41.6,40.3,30.18,NNW,334,0.0,0.0,95,0.00,,CLR,0.00,VWS V14.01,2013-11-03 12:46:00,
2013-11-03 07:51:00,42.1,40.5,30.19,NNW,336,0.0,0.0,94,0.00,,CLR,0.00,VWS V14.01,2013-11-03 12:51:00,
2013-11-03 07:56:00,42.5,40.6,30.19,North,352,0.0,0.0,93,0.00,,CLR,0.00,VWS V14.01,2013-11-03 12:56:00,
2013-11-03 08:01:00,42.9,40.7,30.19,North,359,0.0,0.0,92,0.00,,CLR,0.00,VWS V14.01,2013-11-03 13:01:00,
2013-11-03 08:06:00,43.2,41.0,30.20,WSW,255,0.0,0.0,92,0.00,,CLR,0.00,VWS V14.01,2013-11-03 13:06:00,
2013-11-03 08:11:00,43.6,41.2,30.20,West,280,0.0,0.0,91,0.00,,CLR,0.00,VWS V14.01,2013-11-03 13:11:00,
2013-11-03 08:16:00,44.3,41.8,30.20,West,280,0.0,0.0,91,0.00,,CLR,0.00,VWS V14.01,2013-11-03 13:16:00,
2013-11-03 08:21:00,45.3,42.3,30.20,West,280,0.0,0.0,89,0.00,,CLR,0.00,VWS V14.01,2013-11-03 13:21:00,
2013-11-03 08:26:00,46.4,42.8,30.20,NNW,342,1.0,0.0,87,0.00,,CLR,0.00,VWS V14.01,2013-11-03 13:26:00,
2013-11-03 08:31:00,47.3,43.0,30.21,NE,56,0.0,0.0,85,0.00,,CLR,0.00,VWS V14.01,2013-11-03 13:31:00,
2013-11-03 08:36:00,48.0,43.1,30.21,North,355,0.0,0.0,83,0.00,,CLR,0.00,VWS V14.01,2013-11-03 13:36:00,
2013-11-03 08:41:00,48.6,43.4,30.21,North,355,0.0,0.0,82,0.00,,CLR,0.00,VWS V14.01,2013-11-03 13:41:00,
2013-11-03 08:46:00,49.3,43.4,30.21,NNE,16,0.0,0.0,80,0.00,,CLR,0.00,VWS V14.01,2013-11-03 13:46:00,
2013-11-03 08:51:00,49.6,43.4,30.21,NNW,343,0.0,0.0,79,0.00,,CLR,0.00,VWS V14.01,2013-11-03 13:51:00,
2013-11-03 08:56:00,50.2,43.6,30.22,NE,37,0.0,0.0,78,0.00,,CLR,0.00,VWS V14.01,2013-11-03 13:56:00,
2013-11-03 09:01:00,50.5,43.2,30.22,North,352,1.0,0.0,76,0.00,,CLR,0.00,VWS V14.01,2013-11-03 14:01:00,
2013-11-03 09:06:00,51.1,43.8,30.22,North,354,0.0,0.0,76,0.00,,CLR,0.00,VWS V14.01,2013-11-03 14:06:00,
2013-11-03 09:11:00,51.8,43.8,30.22,NW,323,0.0,0.0,74,0.00,,CLR,0.00,VWS V14.01,2013-11-03 14:11:00,
2013-11-03 09:16:00,52.5,44.1,30.22,NNW,328,0.0,0.0,73,0.00,,CLR,0.00,VWS V14.01,2013-11-03 14:16:00,
2013-11-03 09:21:00,53.1,44.3,30.22,NNW,336,0.0,0.0,72,0.00,,CLR,0.00,VWS V14.01,2013-11-03 14:21:00,
2013-11-03 09:26:00,53.5,44.0,30.22,NE,44,0.0,0.0,70,0.00,,CLR,0.00,VWS V14.01,2013-11-03 14:26:00,
2013-11-03 09:31:00,54.0,44.5,30.23,NW,323,0.0,0.0,70,0.00,,CLR,0.00,VWS V14.01,2013-11-03 14:31:00,
2013-11-03 09:36:00,54.3,44.0,30.23,NNW,333,0.0,0.0,68,0.00,,CLR,0.00,VWS V14.01,2013-11-03 14:36:00,
2013-11-03 09:41:00,54.9,43.8,30.23,North,9,0.0,0.0,66,0.00,,CLR,0.00,VWS V14.01,2013-11-03 14:41:00,
2013-11-03 09:46:00,55.4,44.6,30.23,North,352,0.0,0.0,67,0.00,,CLR,0.00,VWS V14.01,2013-11-03 14:46:00,
2013-11-03 09:51:00,55.9,43.9,30.23,NE,36,0.0,0.0,64,0.00,,CLR,0.00,VWS V14.01,2013-11-03 14:51:00,
2013-11-03 09:56:00,56.7,43.0,30.23,NNE,13,0.0,0.0,60,0.00,,CLR,0.00,VWS V14.01,2013-11-03 14:56:00,
2013-11-03 10:01:00,56.9,42.7,30.23,NNW,330,0.0,0.0,59,0.00,,CLR,0.00,VWS V14.01,2013-11-03 15:01:00,
2013-11-03 10:06:00,57.3,43.5,30.23,North,8,1.0,0.0,60,0.00,,CLR,0.00,VWS V14.01,2013-11-03 15:06:00,
2013-11-03 10:11:00,57.6,42.5,30.23,NNW,347,2.0,0.0,57,0.00,,CLR,0.00,VWS V14.01,2013-11-03 15:11:00,
2013-11-03 10:16:00,57.7,42.6,30.23,NNW,346,0.0,0.0,57,0.00,,CLR,0.00,VWS V14.01,2013-11-03 15:16:00,
2013-11-03 10:21:00,57.9,41.4,30.23,NNW,345,1.0,0.0,54,0.00,,CLR,0.00,VWS V14.01,2013-11-03 15:21:00,
2013-11-03 10:26:00,57.9,41.4,30.24,NNW,337,2.0,0.0,54,0.00,,CLR,0.00,VWS V14.01,2013-11-03 15:26:00,
2013-11-03 10:31:00,58.1,41.6,30.24,NNW,337,0.0,0.0,54,0.00,,CLR,0.00,VWS V14.01,2013-11-03 15:31:00,
2013-11-03 10:36:00,58.3,41.8,30.24,North,356,0.0,0.0,54,0.00,,CLR,0.00,VWS V14.01,2013-11-03 15:36:00,
2013-11-03 10:41:00,59.0,42.9,30.24,SSW,210,1.0,0.0,55,0.00,,CLR,0.00,VWS V14.01,2013-11-03 15:41:00,
2013-11-03 10:46:00,59.7,42.6,30.24,SW,220,1.0,0.0,53,0.00,,CLR,0.00,VWS V14.01,2013-11-03 15:46:00,
2013-11-03 10:51:00,59.4,41.3,30.24,NE,47,1.0,0.0,51,0.00,,CLR,0.00,VWS V14.01,2013-11-03 15:51:00,
2013-11-03 10:56:00,59.4,41.8,30.24,NNE,30,1.0,0.0,52,0.00,,CLR,0.00,VWS V14.01,2013-11-03 15:56:00,
2013-11-03 11:01:00,59.3,41.2,30.25,NE,45,1.0,0.0,51,0.00,,CLR,0.00,VWS V14.01,2013-11-03 16:01:00,
2013-11-03 11:06:00,59.2,41.1,30.25,West,260,1.0,0.0,51,0.00,,CLR,0.00,VWS V14.01,2013-11-03 16:06:00,
2013-11-03 11:11:00,59.7,42.1,30.24,NNE,31,0.0,0.0,52,0.00,,CLR,0.00,VWS V14.01,2013-11-03 16:11:00,
2013-11-03 11:16:00,60.2,43.0,30.24,NNE,27,0.0,0.0,53,0.00,,CLR,0.00,VWS V14.01,2013-11-03 16:16:00,
2013-11-03 11:21:00,60.0,40.8,30.25,NE,46,0.0,0.0,49,0.00,,CLR,0.00,VWS V14.01,2013-11-03 16:21:00,
2013-11-03 11:26:00,60.0,41.8,30.25,NE,53,1.0,0.0,51,0.00,,CLR,0.00,VWS V14.01,2013-11-03 16:26:00,
2013-11-03 11:31:00,60.9,42.2,30.24,ESE,122,0.0,0.0,50,0.00,,CLR,0.00,VWS V14.01,2013-11-03 16:31:00,
2013-11-03 11:36:00,61.3,42.0,30.24,SSE,160,0.0,0.0,49,0.00,,CLR,0.00,VWS V14.01,2013-11-03 16:36:00,
2013-11-03 11:41:00,60.9,39.4,30.24,NNW,335,0.0,0.0,45,0.00,,CLR,0.00,VWS V14.01,2013-11-03 16:41:00,
2013-11-03 11:46:00,60.9,41.1,30.24,SW,222,0.0,0.0,48,0.00,,CLR,0.00,VWS V14.01,2013-11-03 16:46:00,
2013-11-03 11:52:00,61.3,42.0,30.24,North,6,2.0,0.0,49,0.00,,CLR,0.00,VWS V14.01,2013-11-03 16:52:00,
2013-11-03 11:57:00,61.4,41.6,30.23,NW,326,4.0,0.0,48,0.00,,CLR,0.00,VWS V14.01,2013-11-03 16:57:00,
2013-11-03 12:02:00,61.1,40.7,30.23,WSW,241,0.0,0.0,47,0.00,,CLR,0.00,VWS V14.01,2013-11-03 17:02:00,
2013-11-03 12:07:00,61.6,40.1,30.23,NW,314,0.0,0.0,45,0.00,,CLR,0.00,VWS V14.01,2013-11-03 17:07:00,
2013-11-03 12:12:00,61.6,40.1,30.23,NE,40,0.0,0.0,45,0.00,,CLR,0.00,VWS V14.01,2013-11-03 17:12:00,
2013-11-03 12:17:00,62.1,40.0,30.23,WSW,250,1.0,0.0,44,0.00,,CLR,0.00,VWS V14.01,2013-11-03 17:17:00,
2013-11-03 12:22:00,62.4,39.6,30.23,North,356,0.0,0.0,43,0.00,,CLR,0.00,VWS V14.01,2013-11-03 17:22:00,
2013-11-03 12:27:00,62.7,38.0,30.23,North,10,1.0,0.0,40,0.00,,CLR,0.00,VWS V14.01,2013-11-03 17:27:00,
2013-11-03 12:32:00,62.8,38.8,30.22,NNW,328,0.0,0.0,41,0.00,,CLR,0.00,VWS V14.01,2013-11-03 17:32:00,
2013-11-03 12:37:00,62.5,39.7,30.22,North,5,1.0,0.0,43,0.00,,CLR,0.00,VWS V14.01,2013-11-03 17:37:00,
2013-11-03 12:42:00,62.1,39.4,30.22,NNW,342,0.0,0.0,43,0.00,,CLR,0.00,VWS V14.01,2013-11-03 17:42:00,
2013-11-03 12:47:00,62.1,40.0,30.21,West,280,0.0,0.0,44,0.00,,CLR,0.00,VWS V14.01,2013-11-03 17:47:00,
2013-11-03 12:52:00,62.8,40.6,30.21,NW,320,0.0,0.0,44,0.00,,CLR,0.00,VWS V14.01,2013-11-03 17:52:00,
2013-11-03 12:57:00,63.3,40.5,30.20,NNW,335,2.0,0.0,43,0.00,,CLR,0.00,VWS V14.01,2013-11-03 17:57:00,
2013-11-03 13:02:00,63.6,42.5,30.20,SE,134,1.0,0.0,46,0.00,,CLR,0.00,VWS V14.01,2013-11-03 18:02:00,
2013-11-03 13:07:00,64.0,41.7,30.20,SSE,155,0.0,0.0,44,0.00,,CLR,0.00,VWS V14.01,2013-11-03 18:07:00,
2013-11-03 13:12:00,63.2,40.3,30.20,North,359,1.0,0.0,43,0.00,,CLR,0.00,VWS V14.01,2013-11-03 18:12:00,
2013-11-03 13:17:00,62.8,38.8,30.19,North,349,0.0,0.0,41,0.00,,CLR,0.00,VWS V14.01,2013-11-03 18:17:00,
2013-11-03 13:22:00,63.2,41.0,30.20,NW,320,0.0,0.0,44,0.00,,CLR,0.00,VWS V14.01,2013-11-03 18:22:00,
2013-11-03 13:27:00,63.3,39.8,30.19,South,173,1.0,0.0,42,0.00,,CLR,0.00,VWS V14.01,2013-11-03 18:27:00,
2013-11-03 13:32:00,63.9,40.4,30.19,WSW,248,0.0,0.0,42,0.00,,CLR,0.00,VWS V14.01,2013-11-03 18:32:00,
2013-11-03 13:37:00,64.7,41.1,30.19,WSW,248,0.0,0.0,42,0.00,,CLR,0.00,VWS V14.01,2013-11-03 18:37:00,
2013-11-03 13:42:00,65.2,41.5,30.19,SSW,198,2.0,0.0,42,0.00,,CLR,0.00,VWS V14.01,2013-11-03 18:42:00,
2013-11-03 13:47:00,65.2,40.9,30.19,SSE,155,0.0,0.0,41,0.00,,CLR,0.00,VWS V14.01,2013-11-03 18:47:00,
2013-11-03 13:52:00,65.1,40.2,30.19,West,271,1.0,0.0,40,0.00,,CLR,0.00,VWS V14.01,2013-11-03 18:52:00,
2013-11-03 13:57:00,65.3,40.4,30.19,SE,143,0.0,0.0,40,0.00,,CLR,0.00,VWS V14.01,2013-11-03 18:57:00,
2013-11-03 14:02:00,65.2,40.9,30.18,SE,132,0.0,0.0,41,0.00,,CLR,0.00,VWS V14.01,2013-11-03 19:02:00,
2013-11-03 14:07:00,65.6,40.7,30.18,ESE,121,1.0,0.0,40,0.00,,CLR,0.00,VWS V14.01,2013-11-03 19:07:00,
2013-11-03 14:12:00,65.2,39.0,30.18,NW,315,0.0,0.0,38,0.00,,CLR,0.00,VWS V14.01,2013-11-03 19:12:00,
2013-11-03 14:17:00,65.0,38.8,30.18,WSW,253,0.0,0.0,38,0.00,,CLR,0.00,VWS V14.01,2013-11-03 19:17:00,
2013-11-03 14:22:00,65.4,39.2,30.18,SSE,150,1.0,0.0,38,0.00,,CLR,0.00,VWS V14.01,2013-11-03 19:22:00,
2013-11-03 14:27:00,65.5,39.2,30.18,North,6,2.0,0.0,38,0.00,,CLR,0.00,VWS V14.01,2013-11-03 19:27:00,
2013-11-03 14:32:00,65.1,38.9,30.18,ENE,68,0.0,0.0,38,0.00,,CLR,0.00,VWS V14.01,2013-11-03 19:32:00,
2013-11-03 14:37:00,65.6,40.0,30.18,NE,51,2.0,0.0,39,0.00,,CLR,0.00,VWS V14.01,2013-11-03 19:37:00,
2013-11-03 14:42:00,65.3,38.4,30.19,WNW,295,0.0,0.0,37,0.00,,CLR,0.00,VWS V14.01,2013-11-03 19:42:00,
2013-11-03 14:47:00,65.3,39.1,30.19,NNE,15,0.0,0.0,38,0.00,,CLR,0.00,VWS V14.01,2013-11-03 19:47:00,
2013-11-03 14:52:00,65.5,38.6,30.19,NE,39,0.0,0.0,37,0.00,,CLR,0.00,VWS V14.01,2013-11-03 19:52:00,
2013-11-03 14:57:00,65.5,37.9,30.19,NE,44,0.0,0.0,36,0.00,,CLR,0.00,VWS V14.01,2013-11-03 19:57:00,
2013-11-03 15:02:00,65.2,38.3,30.19,West,267,0.0,0.0,37,0.00,,CLR,0.00,VWS V14.01,2013-11-03 20:02:00,
2013-11-03 15:07:00,65.2,39.0,30.19,WNW,303,0.0,0.0,38,0.00,,CLR,0.00,VWS V14.01,2013-11-03 20:07:00,
2013-11-03 15:12:00,65.2,39.6,30.19,NNW,347,0.0,0.0,39,0.00,,CLR,0.00,VWS V14.01,2013-11-03 20:12:00,
2013-11-03 15:17:00,65.0,38.1,30.19,NE,51,0.0,0.0,37,0.00,,CLR,0.00,VWS V14.01,2013-11-03 20:17:00,
2013-11-03 15:22:00,65.2,39.6,30.19,NW,320,1.0,0.0,39,0.00,,CLR,0.00,VWS V14.01,2013-11-03 20:22:00,
2013-11-03 15:27:00,65.2,37.6,30.19,NNW,341,0.0,0.0,36,0.00,,CLR,0.00,VWS V14.01,2013-11-03 20:27:00,
2013-11-03 15:32:00,65.5,39.2,30.18,NNW,340,0.0,0.0,38,0.00,,CLR,0.00,VWS V14.01,2013-11-03 20:32:00,
2013-11-03 15:37:00,66.2,39.9,30.19,NNW,345,0.0,0.0,38,0.00,,CLR,0.00,VWS V14.01,2013-11-03 20:37:00,
2013-11-03 15:42:00,66.2,39.2,30.19,NE,37,1.0,0.0,37,0.00,,CLR,0.00,VWS V14.01,2013-11-03 20:42:00,
2013-11-03 15:47:00,65.8,38.1,30.19,ESE,119,0.0,0.0,36,0.00,,CLR,0.00,VWS V14.01,2013-11-03 20:47:00,
2013-11-03 15:52:00,66.2,39.2,30.19,SSE,148,0.0,0.0,37,0.00,,CLR,0.00,VWS V14.01,2013-11-03 20:52:00,
2013-11-03 15:57:00,65.9,38.2,30.19,SSW,198,0.0,0.0,36,0.00,,CLR,0.00,VWS V14.01,2013-11-03 20:57:00,
2013-11-03 16:02:00,66.2,38.5,30.19,SSW,197,0.0,0.0,36,0.00,,CLR,0.00,VWS V14.01,2013-11-03 21:02:00,
2013-11-03 16:07:00,66.0,41.0,30.19,SSW,197,0.0,0.0,40,0.00,,CLR,0.00,VWS V14.01,2013-11-03 21:07:00,
2013-11-03 16:12:00,66.4,37.9,30.19,SSW,197,0.0,0.0,35,0.00,,CLR,0.00,VWS V14.01,2013-11-03 21:12:00,
2013-11-03 16:17:00,66.3,37.8,30.19,WSW,240,0.0,0.0,35,0.00,,CLR,0.00,VWS V14.01,2013-11-03 21:17:00,
2013-11-03 16:22:00,65.9,39.6,30.19,WSW,240,0.0,0.0,38,0.00,,CLR,0.00,VWS V14.01,2013-11-03 21:22:00,
2013-11-03 16:28:00,65.7,38.7,30.19,SE,124,0.0,0.0,37,0.00,,CLR,0.00,VWS V14.01,2013-11-03 21:28:00,
2013-11-03 16:33:00,65.5,39.9,30.19,SE,133,0.0,0.0,39,0.00,,CLR,0.00,VWS V14.01,2013-11-03 21:33:00,
2013-11-03 16:38:00,66.1,41.7,30.19,SE,133,0.0,0.0,41,0.00,,CLR,0.00,VWS V14.01,2013-11-03 21:38:00,
2013-11-03 16:43:00,66.4,40.0,30.19,SE,133,0.0,0.0,38,0.00,,CLR,0.00,VWS V14.01,2013-11-03 21:43:00,
2013-11-03 16:48:00,66.4,40.7,30.19,SE,133,0.0,0.0,39,0.00,,CLR,0.00,VWS V14.01,2013-11-03 21:48:00,
2013-11-03 16:53:00,66.3,39.3,30.20,SE,133,0.0,0.0,37,0.00,,CLR,0.00,VWS V14.01,2013-11-03 21:53:00,
2013-11-03 16:58:00,65.4,39.8,30.20,SE,133,0.0,0.0,39,0.00,,CLR,0.00,VWS V14.01,2013-11-03 21:58:00,
2013-11-03 17:03:00,64.5,40.3,30.20,SE,132,0.0,0.0,41,0.00,,CLR,0.00,VWS V14.01,2013-11-03 22:03:00,
2013-11-03 17:08:00,63.4,40.5,30.20,SE,132,0.0,0.0,43,0.00,,CLR,0.00,VWS V14.01,2013-11-03 22:08:00,
2013-11-03 17:13:00,61.9,41.5,30.20,SE,132,0.0,0.0,47,0.00,,CLR,0.00,VWS V14.01,2013-11-03 22:13:00,
2013-11-03 17:18:00,60.8,41.0,30.20,SE,132,0.0,0.0,48,0.00,,CLR,0.00,VWS V14.01,2013-11-03 22:18:00,
2013-11-03 17:23:00,59.7,41.0,30.20,SE,132,0.0,0.0,50,0.00,,CLR,0.00,VWS V14.01,2013-11-03 22:23:00,
2013-11-03 17:28:00,58.6,41.0,30.21,SE,132,0.0,0.0,52,0.00,,CLR,0.00,VWS V14.01,2013-11-03 22:28:00,
2013-11-03 17:33:00,57.5,41.0,30.21,SE,133,0.0,0.0,54,0.00,,CLR,0.00,VWS V14.01,2013-11-03 22:33:00,
2013-11-03 17:38:00,56.5,41.5,30.21,SE,132,0.0,0.0,57,0.00,,CLR,0.00,VWS V14.01,2013-11-03 22:38:00,
2013-11-03 17:43:00,55.6,42.0,30.20,SE,132,0.0,0.0,60,0.00,,CLR,0.00,VWS V14.01,2013-11-03 22:43:00,
2013-11-03 17:48:00,54.7,42.0,30.20,SE,133,0.0,0.0,62,0.00,,CLR,0.00,VWS V14.01,2013-11-03 22:48:00,
2013-11-03 17:53:00,53.8,41.9,30.20,SE,132,0.0,0.0,64,0.00,,CLR,0.00,VWS V14.01,2013-11-03 22:53:00,
2013-11-03 17:58:00,53.0,42.0,30.20,SE,132,0.0,0.0,66,0.00,,CLR,0.00,VWS V14.01,2013-11-03 22:58:00,
2013-11-03 18:03:00,52.2,42.0,30.21,SE,132,0.0,0.0,68,0.00,,CLR,0.00,VWS V14.01,2013-11-03 23:03:00,
2013-11-03 18:08:00,51.4,42.0,30.21,SE,132,0.0,0.0,70,0.00,,CLR,0.00,VWS V14.01,2013-11-03 23:08:00,
2013-11-03 18:13:00,50.8,42.1,30.21,SE,132,0.0,0.0,72,0.00,,CLR,0.00,VWS V14.01,2013-11-03 23:13:00,
2013-11-03 18:18:00,50.2,41.5,30.21,SE,132,0.0,0.0,72,0.00,,CLR,0.00,VWS V14.01,2013-11-03 23:18:00,
2013-11-03 18:23:00,49.6,41.0,30.22,SE,132,0.0,0.0,72,0.00,,CLR,0.00,VWS V14.01,2013-11-03 23:23:00,
2013-11-03 18:28:00,49.0,40.7,30.22,SE,132,0.0,0.0,73,0.00,,CLR,0.00,VWS V14.01,2013-11-03 23:28:00,
2013-11-03 18:33:00,48.5,40.6,30.22,SE,132,0.0,0.0,74,0.00,,CLR,0.00,VWS V14.01,2013-11-03 23:33:00,
2013-11-03 18:38:00,48.1,41.2,30.22,SE,132,0.0,0.0,77,0.00,,CLR,0.00,VWS V14.01,2013-11-03 23:38:00,
2013-11-03 18:43:00,47.9,41.7,30.23,SE,132,0.0,0.0,79,0.00,,CLR,0.00,VWS V14.01,2013-11-03 23:43:00,
2013-11-03 18:48:00,47.7,41.8,30.23,SE,132,0.0,0.0,80,0.00,,CLR,0.00,VWS V14.01,2013-11-03 23:48:00,
2013-11-03 18:53:00,47.4,41.5,30.23,SE,132,0.0,0.0,80,0.00,,CLR,0.00,VWS V14.01,2013-11-03 23:53:00,
2013-11-03 18:58:00,47.0,41.8,30.23,SE,132,0.0,0.0,82,0.00,,CLR,0.00,VWS V14.01,2013-11-03 23:58:00,
2013-11-03 19:03:00,46.7,41.5,30.23,SE,132,0.0,0.0,82,0.00,,CLR,0.00,VWS V14.01,2013-11-04 00:03:00,
2013-11-03 19:08:00,46.4,41.5,30.23,SE,132,0.0,0.0,83,0.00,,CLR,0.00,VWS V14.01,2013-11-04 00:08:00,
2013-11-03 19:13:00,46.2,41.6,30.24,SE,133,0.0,0.0,84,0.00,,CLR,0.00,VWS V14.01,2013-11-04 00:13:00,
2013-11-03 19:18:00,46.0,41.4,30.24,SE,132,0.0,0.0,84,0.00,,CLR,0.00,VWS V14.01,2013-11-04 00:18:00,
2013-11-03 19:23:00,45.7,41.5,30.24,SE,133,0.0,0.0,85,0.00,,CLR,0.00,VWS V14.01,2013-11-04 00:23:00,
2013-11-03 19:28:00,45.5,41.3,30.24,SE,133,0.0,0.0,85,0.00,,CLR,0.00,VWS V14.01,2013-11-04 00:28:00,
2013-11-03 19:33:00,45.3,41.4,30.24,SE,133,0.0,0.0,86,0.00,,CLR,0.00,VWS V14.01,2013-11-04 00:33:00,
2013-11-03 19:38:00,45.1,41.5,30.25,SE,132,0.0,0.0,87,0.00,,CLR,0.00,VWS V14.01,2013-11-04 00:38:00,
2013-11-03 19:43:00,44.9,41.3,30.25,SE,132,0.0,0.0,87,0.00,,CLR,0.00,VWS V14.01,2013-11-04 00:43:00,
2013-11-03 19:48:00,44.8,41.2,30.25,SE,132,0.0,0.0,87,0.00,,CLR,0.00,VWS V14.01,2013-11-04 00:48:00,
2013-11-03 19:53:00,44.5,41.2,30.26,SE,132,0.0,0.0,88,0.00,,CLR,0.00,VWS V14.01,2013-11-04 00:53:00,
2013-11-03 19:58:00,44.2,40.6,30.25,SE,133,0.0,0.0,87,0.00,,CLR,0.00,VWS V14.01,2013-11-04 00:58:00,
2013-11-03 20:03:00,44.0,40.4,30.26,SE,133,0.0,0.0,87,0.00,,CLR,0.00,VWS V14.01,2013-11-04 01:03:00,
2013-11-03 20:08:00,43.7,40.1,30.26,SE,132,0.0,0.0,87,0.00,,CLR,0.00,VWS V14.01,2013-11-04 01:08:00,
2013-11-03 20:13:00,43.5,39.9,30.26,SE,132,0.0,0.0,87,0.00,,CLR,0.00,VWS V14.01,2013-11-04 01:13:00,
2013-11-03 20:18:00,43.4,40.4,30.26,SE,133,0.0,0.0,89,0.00,,CLR,0.00,VWS V14.01,2013-11-04 01:18:00,
2013-11-03 20:23:00,43.2,40.2,30.26,SE,132,0.0,0.0,89,0.00,,CLR,0.00,VWS V14.01,2013-11-04 01:23:00,
2013-11-03 20:28:00,42.9,39.9,30.26,SE,133,0.0,0.0,89,0.00,,CLR,0.00,VWS V14.01,2013-11-04 01:28:00,
2013-11-03 20:33:00,42.7,39.7,30.26,SE,132,0.0,0.0,89,0.00,,CLR,0.00,VWS V14.01,2013-11-04 01:33:00,
2013-11-03 20:38:00,42.5,39.8,30.26,SE,133,0.0,0.0,90,0.00,,CLR,0.00,VWS V14.01,2013-11-04 01:38:00,
2013-11-03 20:43:00,42.3,39.6,30.26,SE,132,0.0,0.0,90,0.00,,CLR,0.00,VWS V14.01,2013-11-04 01:43:00,
2013-11-03 20:48:00,42.2,39.8,30.26,SE,132,0.0,0.0,91,0.00,,CLR,0.00,VWS V14.01,2013-11-04 01:48:00,
2013-11-03 20:53:00,42.1,39.7,30.26,SE,133,0.0,0.0,91,0.00,,CLR,0.00,VWS V14.01,2013-11-04 01:53:00,
2013-11-03 20:58:00,41.9,39.5,30.26,SE,132,0.0,0.0,91,0.00,,CLR,0.00,VWS V14.01,2013-11-04 01:58:00,
2013-11-03 21:03:00,41.8,39.7,30.27,SE,132,0.0,0.0,92,0.00,,CLR,0.00,VWS V14.01,2013-11-04 02:03:00,
2013-11-03 21:08:00,41.7,39.5,30.27,SE,132,0.0,0.0,92,0.00,,CLR,0.00,VWS V14.01,2013-11-04 02:08:00,
2013-11-03 21:13:00,41.7,39.5,30.27,SE,132,0.0,0.0,92,0.00,,CLR,0.00,VWS V14.01,2013-11-04 02:13:00,
2013-11-03 21:18:00,41.6,39.5,30.27,SE,132,0.0,0.0,92,0.00,,CLR,0.00,VWS V14.01,2013-11-04 02:18:00,
2013-11-03 21:23:00,41.6,39.7,30.27,SE,133,0.0,0.0,93,0.00,,CLR,0.00,VWS V14.01,2013-11-04 02:23:00,
2013-11-03 21:28:00,41.6,39.7,30.27,SE,132,0.0,0.0,93,0.00,,CLR,0.00,VWS V14.01,2013-11-04 02:28:00,
2013-11-03 21:33:00,41.7,40.1,30.27,SE,132,0.0,0.0,94,0.00,,CLR,0.00,VWS V14.01,2013-11-04 02:33:00,
2013-11-03 21:38:00,41.6,40.0,30.27,SE,132,0.0,0.0,94,0.00,,CLR,0.00,VWS V14.01,2013-11-04 02:38:00,
2013-11-03 21:43:00,41.5,39.9,30.27,SE,132,0.0,0.0,94,0.00,,CLR,0.00,VWS V14.01,2013-11-04 02:43:00,
2013-11-03 21:48:00,41.5,39.9,30.27,SE,133,0.0,0.0,94,0.00,,CLR,0.00,VWS V14.01,2013-11-04 02:48:00,
2013-11-03 21:53:00,41.4,39.8,30.27,SE,132,0.0,0.0,94,0.00,,CLR,0.00,VWS V14.01,2013-11-04 02:53:00,
2013-11-03 21:59:00,41.3,39.7,30.28,SE,132,0.0,0.0,94,0.00,,CLR,0.00,VWS V14.01,2013-11-04 02:59:00,
2013-11-03 22:04:00,41.0,39.4,30.28,SE,132,0.0,0.0,94,0.00,,CLR,0.00,VWS V14.01,2013-11-04 03:04:00,
2013-11-03 22:09:00,40.9,39.6,30.28,SE,132,0.0,0.0,95,0.00,,CLR,0.00,VWS V14.01,2013-11-04 03:09:00,
2013-11-03 22:14:00,40.8,39.5,30.28,SE,132,0.0,0.0,95,0.00,,CLR,0.00,VWS V14.01,2013-11-04 03:14:00,
2013-11-03 22:19:00,40.8,39.5,30.28,SE,133,0.0,0.0,95,0.00,,CLR,0.00,VWS V14.01,2013-11-04 03:19:00,
2013-11-03 22:24:00,40.7,39.4,30.29,SE,132,0.0,0.0,95,0.00,,CLR,0.00,VWS V14.01,2013-11-04 03:24:00,
2013-11-03 22:29:00,40.5,39.2,30.29,SE,132,0.0,0.0,95,0.00,,CLR,0.00,VWS V14.01,2013-11-04 03:29:00,
2013-11-03 22:34:00,40.4,39.1,30.30,SE,133,0.0,0.0,95,0.00,,CLR,0.00,VWS V14.01,2013-11-04 03:34:00,
2013-11-03 22:39:00,40.5,39.2,30.30,SE,132,0.0,0.0,95,0.00,,CLR,0.00,VWS V14.01,2013-11-04 03:39:00,
2013-11-03 22:44:00,40.4,39.1,30.30,SE,132,0.0,0.0,95,0.00,,CLR,0.00,VWS V14.01,2013-11-04 03:44:00,
2013-11-03 22:49:00,40.3,39.2,30.30,SE,132,0.0,0.0,96,0.00,,CLR,0.00,VWS V14.01,2013-11-04 03:49:00,
2013-11-03 22:54:00,40.3,39.2,30.30,SE,132,0.0,0.0,96,0.00,,CLR,0.00,VWS V14.01,2013-11-04 03:54:00,
2013-11-03 22:59:00,40.4,39.3,30.30,SE,132,0.0,0.0,96,0.00,,CLR,0.00,VWS V14.01,2013-11-04 03:59:00,
2013-11-03 23:04:00,40.5,39.5,30.31,SE,132,0.0,0.0,96,0.00,,CLR,0.00,VWS V14.01,2013-11-04 04:04:00,
2013-11-03 23:09:00,40.4,39.3,30.31,SE,132,0.0,0.0,96,0.00,,CLR,0.00,VWS V14.01,2013-11-04 04:09:00,
2013-11-03 23:14:00,40.3,39.2,30.31,SE,132,0.0,0.0,96,0.00,,CLR,0.00,VWS V14.01,2013-11-04 04:14:00,
2013-11-03 23:19:00,40.1,39.0,30.31,SE,132,0.0,0.0,96,0.00,,CLR,0.00,VWS V14.01,2013-11-04 04:19:00,
2013-11-03 23:24:00,40.0,39.0,30.31,SE,132,0.0,0.0,96,0.00,,CLR,0.00,VWS V14.01,2013-11-04 04:24:00,
2013-11-03 23:29:00,40.0,39.0,30.32,SE,132,0.0,0.0,96,0.00,,CLR,0.00,VWS V14.01,2013-11-04 04:29:00,
2013-11-03 23:34:00,39.8,38.8,30.32,SE,132,0.0,0.0,96,0.00,,CLR,0.00,VWS V14.01,2013-11-04 04:34:00,
2013-11-03 23:39:00,39.7,38.7,30.32,SE,132,0.0,0.0,96,0.00,,CLR,0.00,VWS V14.01,2013-11-04 04:39:00,
2013-11-03 23:44:00,39.5,38.5,30.32,SE,132,0.0,0.0,96,0.00,,CLR,0.00,VWS V14.01,2013-11-04 04:44:00,
2013-11-03 23:49:00,39.3,38.3,30.32,SE,132,0.0,0.0,96,0.00,,CLR,0.00,VWS V14.01,2013-11-04 04:49:00,
2013-11-03 23:54:00,39.2,38.2,30.32,SE,132,0.0,0.0,96,0.00,,CLR,0.00,VWS V14.01,2013-11-04 04:54:00,
2013-11-03 23:59:00,39.2,38.2,30.32,SE,132,0.0,0.0,96,0.00,,CLR,0.00,VWS V14.01,2013-11-04 04:59:00,